Time,TemperatureF,DewpointF,PressureIn,WindDirection,WindDirectionDegrees,WindSpeedMPH,WindSpeedGustMPH,Humidity,HourlyPrecipIn,Conditions,Clouds,dailyrainin,SoftwareType,DateUTC
2013-10-06 00:00:00,43.4,1.4,30.23,West,276,10.0,13.0,17,0.00,,,0.00,Wunderground v.1.15,2013-10-06 06:00:00,
2013-10-06 00:01:00,43.7,1.6,30.24,WNW,293,11.0,17.0,17,0.00,,,0.00,Wunderground v.1.15,2013-10-06 06:01:00,
2013-10-06 00:03:00,44.1,2.0,30.23,WNW,297,12.0,25.0,17,0.00,,,0.00,Wunderground v.1.15,2013-10-06 06:03:00,
2013-10-06 00:04:00,44.4,0.9,30.23,WNW,285,13.0,25.0,16,0.00,,,0.00,Wunderground v.1.15,2013-10-06 06:04:00,
2013-10-06 00:05:00,44.7,1.2,30.23,West,271,14.0,25.0,16,0.00,,,0.00,Wunderground v.1.15,2013-10-06 06:05:00,
2013-10-06 00:06:00,44.9,2.6,30.23,WNW,293,14.0,25.0,17,0.00,,,0.00,Wunderground v.1.15,2013-10-06 06:06:00,
2013-10-06 00:09:00,45.1,1.5,30.23,West,270,16.0,25.0,16,0.00,,,0.00,Wunderground v.1.15,2013-10-06 06:09:00,
2013-10-06 00:11:00,45.0,2.7,30.22,West,270,15.0,21.0,17,0.00,,,0.00,Wunderground v.1.15,2013-10-06 06:11:00,
2013-10-06 00:12:00,44.9,2.6,30.22,NW,309,15.0,21.0,17,0.00,,,0.00,Wunderground v.1.15,2013-10-06 06:12:00,
2013-10-06 00:14:00,44.7,3.7,30.23,West,266,14.0,21.0,18,0.00,,,0.00,Wunderground v.1.15,2013-10-06 06:14:00,
2013-10-06 00:15:00,44.6,3.6,30.23,West,260,13.0,24.0,18,0.00,,,0.00,Wunderground v.1.15,2013-10-06 06:15:00,
2013-10-06 00:19:00,44.3,3.4,30.21,SW,218,12.0,24.0,18,0.00,,,0.00,Wunderground v.1.15,2013-10-06 06:19:00,
2013-10-06 00:20:00,44.1,4.4,30.22,West,273,12.0,21.0,19,0.00,,,0.00,Wunderground v.1.15,2013-10-06 06:20:00,
2013-10-06 00:22:00,43.9,4.2,30.21,West,266,13.0,21.0,19,0.00,,,0.00,Wunderground v.1.15,2013-10-06 06:22:00,
2013-10-06 00:25:00,44.0,4.3,30.21,WNW,300,13.0,21.0,19,0.00,,,0.00,Wunderground v.1.15,2013-10-06 06:25:00,
2013-10-06 00:26:00,44.3,4.6,30.21,WNW,293,13.0,21.0,19,0.00,,,0.00,Wunderground v.1.15,2013-10-06 06:26:00,
2013-10-06 00:31:00,44.7,6.0,30.21,WNW,282,13.0,21.0,20,0.00,,,0.00,Wunderground v.1.15,2013-10-06 06:31:00,
2013-10-06 00:32:00,44.8,6.1,30.21,West,266,13.0,21.0,20,0.00,,,0.00,Wunderground v.1.15,2013-10-06 06:32:00,
2013-10-06 00:33:00,44.7,6.0,30.21,West,276,14.0,21.0,20,0.00,,,0.00,Wunderground v.1.15,2013-10-06 06:33:00,
2013-10-06 00:34:00,44.8,6.1,30.20,SW,236,14.0,25.0,20,0.00,,,0.00,Wunderground v.1.15,2013-10-06 06:34:00,
2013-10-06 00:37:00,44.8,6.1,30.21,WNW,291,14.0,25.0,20,0.00,,,0.00,Wunderground v.1.15,2013-10-06 06:37:00,
2013-10-06 00:39:00,44.7,7.1,30.20,West,259,14.0,25.0,21,0.00,,,0.00,Wunderground v.1.15,2013-10-06 06:39:00,
2013-10-06 00:40:00,44.6,7.0,30.20,WNW,297,14.0,21.0,21,0.00,,,0.00,Wunderground v.1.15,2013-10-06 06:40:00,
2013-10-06 00:42:00,44.5,6.9,30.20,WSW,246,14.0,22.0,21,0.00,,,0.00,Wunderground v.1.15,2013-10-06 06:42:00,
2013-10-06 00:45:00,44.4,7.9,30.20,WNW,293,13.0,22.0,22,0.00,,,0.00,Wunderground v.1.15,2013-10-06 06:45:00,
2013-10-06 00:48:00,44.3,7.8,30.20,West,273,13.0,22.0,22,0.00,,,0.00,Wunderground v.1.15,2013-10-06 06:48:00,
2013-10-06 00:50:00,44.1,7.6,30.20,NW,305,12.0,21.0,22,0.00,,,0.00,Wunderground v.1.15,2013-10-06 06:50:00,
2013-10-06 00:52:00,44.0,8.5,30.20,West,266,11.0,21.0,23,0.00,,,0.00,Wunderground v.1.15,2013-10-06 06:52:00,
2013-10-06 00:54:00,43.9,8.4,30.20,West,266,10.0,21.0,23,0.00,,,0.00,Wunderground v.1.15,2013-10-06 06:54:00,
2013-10-06 00:57:00,43.9,8.4,30.20,West,271,10.0,21.0,23,0.00,,,0.00,Wunderground v.1.15,2013-10-06 06:57:00,
2013-10-06 00:58:00,43.9,8.4,30.20,West,272,10.0,21.0,23,0.00,,,0.00,Wunderground v.1.15,2013-10-06 06:58:00,
2013-10-06 00:59:00,44.0,8.5,30.20,SW,215,10.0,21.0,23,0.00,,,0.00,Wunderground v.1.15,2013-10-06 06:59:00,
2013-10-06 01:02:00,44.3,8.8,30.21,West,276,10.0,16.0,23,0.00,,,0.00,Wunderground v.1.15,2013-10-06 07:02:00,
2013-10-06 01:03:00,44.5,8.9,30.20,WNW,288,11.0,16.0,23,0.00,,,0.00,Wunderground v.1.15,2013-10-06 07:03:00,
2013-10-06 01:04:00,44.7,9.1,30.21,West,276,11.0,19.0,23,0.00,,,0.00,Wunderground v.1.15,2013-10-06 07:04:00,
2013-10-06 01:05:00,44.9,9.3,30.20,West,270,11.0,19.0,23,0.00,,,0.00,Wunderground v.1.15,2013-10-06 07:05:00,
2013-10-06 01:06:00,45.2,9.5,30.20,WNW,282,12.0,19.0,23,0.00,,,0.00,Wunderground v.1.15,2013-10-06 07:06:00,
2013-10-06 01:09:00,45.2,9.5,30.21,West,269,12.0,19.0,23,0.00,,,0.00,Wunderground v.1.15,2013-10-06 07:09:00,
2013-10-06 01:10:00,45.1,9.4,30.21,West,264,13.0,18.0,23,0.00,,,0.00,Wunderground v.1.15,2013-10-06 07:10:00,
2013-10-06 01:12:00,45.2,9.5,30.21,West,276,13.0,18.0,23,0.00,,,0.00,Wunderground v.1.15,2013-10-06 07:12:00,
2013-10-06 01:15:00,45.1,9.4,30.21,West,266,13.0,18.0,23,0.00,,,0.00,Wunderground v.1.15,2013-10-06 07:15:00,
2013-10-06 01:16:00,45.1,10.4,30.21,West,262,13.0,18.0,24,0.00,,,0.00,Wunderground v.1.15,2013-10-06 07:16:00,
2013-10-06 01:18:00,44.9,10.2,30.21,WNW,283,13.0,18.0,24,0.00,,,0.00,Wunderground v.1.15,2013-10-06 07:18:00,
2013-10-06 01:21:00,44.9,10.2,30.21,West,262,13.0,16.0,24,0.00,,,0.00,Wunderground v.1.15,2013-10-06 07:21:00,
2013-10-06 01:23:00,45.0,10.3,30.21,WNW,283,13.0,16.0,24,0.00,,,0.00,Wunderground v.1.15,2013-10-06 07:23:00,
2013-10-06 01:24:00,45.2,10.5,30.21,WNW,285,13.0,16.0,24,0.00,,,0.00,Wunderground v.1.15,2013-10-06 07:24:00,
2013-10-06 01:25:00,45.3,10.6,30.21,SSW,207,13.0,16.0,24,0.00,,,0.00,Wunderground v.1.15,2013-10-06 07:25:00,
2013-10-06 01:26:00,45.4,10.7,30.21,WNW,294,13.0,16.0,24,0.00,,,0.00,Wunderground v.1.15,2013-10-06 07:26:00,
2013-10-06 01:27:00,45.5,9.8,30.21,West,278,13.0,17.0,23,0.00,,,0.00,Wunderground v.1.15,2013-10-06 07:27:00,
2013-10-06 01:30:00,45.9,10.1,30.21,WSW,239,14.0,17.0,23,0.00,,,0.00,Wunderground v.1.15,2013-10-06 07:30:00,
2013-10-06 01:32:00,45.9,10.1,30.21,West,276,15.0,17.0,23,0.00,,,0.00,Wunderground v.1.15,2013-10-06 07:32:00,
2013-10-06 01:33:00,45.9,11.1,30.21,West,271,14.0,17.0,24,0.00,,,0.00,Wunderground v.1.15,2013-10-06 07:33:00,
2013-10-06 01:34:00,45.8,10.0,30.21,SSW,211,14.0,17.0,23,0.00,,,0.00,Wunderground v.1.15,2013-10-06 07:34:00,
2013-10-06 01:35:00,45.9,10.1,30.21,West,276,14.0,17.0,23,0.00,,,0.00,Wunderground v.1.15,2013-10-06 07:35:00,
2013-10-06 01:38:00,46.2,10.4,30.21,WNW,288,14.0,23.0,23,0.00,,,0.00,Wunderground v.1.15,2013-10-06 07:38:00,
2013-10-06 01:40:00,46.4,9.6,30.21,NW,311,14.0,18.0,22,0.00,,,0.00,Wunderground v.1.15,2013-10-06 07:40:00,
2013-10-06 01:41:00,46.5,9.6,30.21,NW,314,14.0,18.0,22,0.00,,,0.00,Wunderground v.1.15,2013-10-06 07:41:00,
2013-10-06 01:42:00,46.5,9.6,30.21,West,266,14.0,18.0,22,0.00,,,0.00,Wunderground v.1.15,2013-10-06 07:42:00,
2013-10-06 01:43:00,46.4,10.5,30.21,WNW,283,14.0,18.0,23,0.00,,,0.00,Wunderground v.1.15,2013-10-06 07:43:00,
2013-10-06 01:44:00,46.3,10.5,30.21,WNW,291,14.0,18.0,23,0.00,,,0.00,Wunderground v.1.15,2013-10-06 07:44:00,
2013-10-06 01:45:00,46.3,10.5,30.21,WNW,285,14.0,18.0,23,0.00,,,0.00,Wunderground v.1.15,2013-10-06 07:45:00,
2013-10-06 01:48:00,46.6,9.7,30.21,West,259,14.0,21.0,22,0.00,,,0.00,Wunderground v.1.15,2013-10-06 07:48:00,
2013-10-06 01:50:00,46.8,9.9,30.21,WSW,252,13.0,15.0,22,0.00,,,0.00,Wunderground v.1.15,2013-10-06 07:50:00,
2013-10-06 01:51:00,46.8,9.9,30.21,West,267,13.0,15.0,22,0.00,,,0.00,Wunderground v.1.15,2013-10-06 07:51:00,
2013-10-06 01:52:00,46.8,9.9,30.21,West,277,13.0,15.0,22,0.00,,,0.00,Wunderground v.1.15,2013-10-06 07:52:00,
2013-10-06 01:54:00,46.9,10.0,30.21,West,276,13.0,26.0,22,0.00,,,0.00,Wunderground v.1.15,2013-10-06 07:54:00,
2013-10-06 01:56:00,47.1,10.1,30.22,West,274,14.0,26.0,22,0.00,,,0.00,Wunderground v.1.15,2013-10-06 07:56:00,
2013-10-06 01:58:00,47.2,10.2,30.21,WNW,288,13.0,26.0,22,0.00,,,0.00,Wunderground v.1.15,2013-10-06 07:58:00,
2013-10-06 01:59:00,47.2,10.2,30.21,WSW,255,13.0,26.0,22,0.00,,,0.00,Wunderground v.1.15,2013-10-06 07:59:00,
2013-10-06 02:01:00,47.1,10.1,30.22,West,262,13.0,14.0,22,0.00,,,0.00,Wunderground v.1.15,2013-10-06 08:01:00,
2013-10-06 02:06:00,47.1,10.1,30.22,West,260,13.0,15.0,22,0.00,,,0.00,Wunderground v.1.15,2013-10-06 08:06:00,
2013-10-06 02:07:00,47.1,10.1,30.21,West,279,13.0,15.0,22,0.00,,,0.00,Wunderground v.1.15,2013-10-06 08:07:00,
2013-10-06 02:08:00,47.2,11.2,30.21,SW,233,13.0,15.0,23,0.00,,,0.00,Wunderground v.1.15,2013-10-06 08:08:00,
2013-10-06 02:11:00,47.4,11.4,30.21,WNW,282,13.0,13.0,23,0.00,,,0.00,Wunderground v.1.15,2013-10-06 08:11:00,
2013-10-06 02:15:00,47.3,11.3,30.22,West,259,11.0,14.0,23,0.00,,,0.00,Wunderground v.1.15,2013-10-06 08:15:00,
2013-10-06 02:17:00,47.1,11.1,30.22,SW,226,10.0,14.0,23,0.00,,,0.00,Wunderground v.1.15,2013-10-06 08:17:00,
2013-10-06 02:18:00,47.0,11.1,30.22,SSW,213,9.0,14.0,23,0.00,,,0.00,Wunderground v.1.15,2013-10-06 08:18:00,
2013-10-06 02:20:00,46.6,12.6,30.22,SW,221,7.0,7.0,25,0.00,,,0.00,Wunderground v.1.15,2013-10-06 08:20:00,
2013-10-06 02:21:00,46.4,11.5,30.22,WNW,297,7.0,7.0,24,0.00,,,0.00,Wunderground v.1.15,2013-10-06 08:21:00,
2013-10-06 02:23:00,45.9,11.1,30.22,WNW,285,5.0,7.0,24,0.00,,,0.00,Wunderground v.1.15,2013-10-06 08:23:00,
2013-10-06 02:24:00,45.6,10.8,30.22,WNW,282,5.0,7.0,24,0.00,,,0.00,Wunderground v.1.15,2013-10-06 08:24:00,
2013-10-06 02:25:00,45.4,10.7,30.22,SW,219,5.0,7.0,24,0.00,,,0.00,Wunderground v.1.15,2013-10-06 08:25:00,
2013-10-06 02:26:00,45.3,10.6,30.22,WNW,289,5.0,7.0,24,0.00,,,0.00,Wunderground v.1.15,2013-10-06 08:26:00,
2013-10-06 02:28:00,45.2,11.4,30.22,SSW,210,5.0,7.0,25,0.00,,,0.00,Wunderground v.1.15,2013-10-06 08:28:00,
2013-10-06 02:29:00,45.2,11.4,30.22,WSW,243,5.0,7.0,25,0.00,,,0.00,Wunderground v.1.15,2013-10-06 08:29:00,
2013-10-06 02:31:00,45.1,12.2,30.23,West,266,5.0,8.0,26,0.00,,,0.00,Wunderground v.1.15,2013-10-06 08:31:00,
2013-10-06 02:32:00,44.9,12.0,30.22,West,271,5.0,8.0,26,0.00,,,0.00,Wunderground v.1.15,2013-10-06 08:32:00,
2013-10-06 02:33:00,44.8,11.9,30.23,WSW,249,5.0,8.0,26,0.00,,,0.00,Wunderground v.1.15,2013-10-06 08:33:00,
2013-10-06 02:34:00,44.7,11.9,30.23,WSW,249,5.0,8.0,26,0.00,,,0.00,Wunderground v.1.15,2013-10-06 08:34:00,
2013-10-06 02:39:00,44.2,13.1,30.22,SSW,198,5.0,10.0,28,0.00,,,0.00,Wunderground v.1.15,2013-10-06 08:39:00,
2013-10-06 02:40:00,44.0,12.9,30.22,West,276,5.0,7.0,28,0.00,,,0.00,Wunderground v.1.15,2013-10-06 08:40:00,
2013-10-06 02:41:00,43.9,13.6,30.22,WSW,255,5.0,7.0,29,0.00,,,0.00,Wunderground v.1.15,2013-10-06 08:41:00,
2013-10-06 02:47:00,43.2,13.8,30.22,WSW,243,7.0,10.0,30,0.00,,,0.00,Wunderground v.1.15,2013-10-06 08:47:00,
2013-10-06 02:48:00,43.1,13.7,30.22,WSW,246,8.0,11.0,30,0.00,,,0.00,Wunderground v.1.15,2013-10-06 08:48:00,
2013-10-06 02:51:00,42.9,14.3,30.22,South,176,9.0,11.0,31,0.00,,,0.00,Wunderground v.1.15,2013-10-06 08:51:00,
2013-10-06 02:52:00,42.8,14.2,30.22,West,270,9.0,11.0,31,0.00,,,0.00,Wunderground v.1.15,2013-10-06 08:52:00,
2013-10-06 02:54:00,42.7,14.8,30.22,SW,221,9.0,11.0,32,0.00,,,0.00,Wunderground v.1.15,2013-10-06 08:54:00,
2013-10-06 02:57:00,42.4,14.6,30.22,SSW,201,9.0,11.0,32,0.00,,,0.00,Wunderground v.1.15,2013-10-06 08:57:00,
2013-10-06 02:58:00,42.4,14.6,30.22,WSW,240,9.0,14.0,32,0.00,,,0.00,Wunderground v.1.15,2013-10-06 08:58:00,
2013-10-06 02:59:00,42.3,15.2,30.22,SW,219,9.0,15.0,33,0.00,,,0.00,Wunderground v.1.15,2013-10-06 08:59:00,
2013-10-06 03:02:00,42.3,15.2,30.22,South,181,10.0,11.0,33,0.00,,,0.00,Wunderground v.1.15,2013-10-06 09:02:00,
2013-10-06 03:04:00,42.3,15.2,30.22,SSW,196,10.0,15.0,33,0.00,,,0.00,Wunderground v.1.15,2013-10-06 09:04:00,
2013-10-06 03:05:00,42.4,15.3,30.22,WSW,255,11.0,15.0,33,0.00,,,0.00,Wunderground v.1.15,2013-10-06 09:05:00,
2013-10-06 03:08:00,42.5,15.4,30.22,SSW,205,12.0,16.0,33,0.00,,,0.00,Wunderground v.1.15,2013-10-06 09:08:00,
2013-10-06 03:10:00,42.4,15.3,30.21,SSW,194,12.0,12.0,33,0.00,,,0.00,Wunderground v.1.15,2013-10-06 09:10:00,
2013-10-06 03:12:00,42.3,15.2,30.22,SSW,208,11.0,12.0,33,0.00,,,0.00,Wunderground v.1.15,2013-10-06 09:12:00,
2013-10-06 03:13:00,42.3,15.2,30.22,SW,217,11.0,12.0,33,0.00,,,0.00,Wunderground v.1.15,2013-10-06 09:13:00,
2013-10-06 03:14:00,42.3,15.2,30.22,SSW,201,11.0,16.0,33,0.00,,,0.00,Wunderground v.1.15,2013-10-06 09:14:00,
2013-10-06 03:16:00,42.3,15.2,30.22,SW,231,10.0,16.0,33,0.00,,,0.00,Wunderground v.1.15,2013-10-06 09:16:00,
2013-10-06 03:19:00,42.5,15.4,30.21,SW,232,10.0,16.0,33,0.00,,,0.00,Wunderground v.1.15,2013-10-06 09:19:00,
2013-10-06 03:20:00,42.4,15.3,30.21,SW,232,9.0,17.0,33,0.00,,,0.00,Wunderground v.1.15,2013-10-06 09:20:00,
2013-10-06 03:22:00,42.4,15.3,30.22,SW,228,10.0,17.0,33,0.00,,,0.00,Wunderground v.1.15,2013-10-06 09:22:00,
2013-10-06 03:25:00,42.5,15.4,30.22,SW,219,9.0,17.0,33,0.00,,,0.00,Wunderground v.1.15,2013-10-06 09:25:00,
2013-10-06 03:26:00,42.4,15.3,30.22,SSE,162,9.0,17.0,33,0.00,,,0.00,Wunderground v.1.15,2013-10-06 09:26:00,
2013-10-06 03:29:00,42.5,15.4,30.22,SSW,194,9.0,17.0,33,0.00,,,0.00,Wunderground v.1.15,2013-10-06 09:29:00,
2013-10-06 03:30:00,42.4,16.0,30.22,WSW,249,9.0,9.0,34,0.00,,,0.00,Wunderground v.1.15,2013-10-06 09:30:00,
2013-10-06 03:34:00,42.5,16.1,30.22,SW,235,9.0,17.0,34,0.00,,,0.00,Wunderground v.1.15,2013-10-06 09:34:00,
2013-10-06 03:35:00,42.5,16.1,30.22,West,276,9.0,17.0,34,0.00,,,0.00,Wunderground v.1.15,2013-10-06 09:35:00,
2013-10-06 03:36:00,42.5,16.1,30.22,SSW,207,10.0,17.0,34,0.00,,,0.00,Wunderground v.1.15,2013-10-06 09:36:00,
2013-10-06 03:38:00,42.6,16.2,30.22,SW,222,9.0,17.0,34,0.00,,,0.00,Wunderground v.1.15,2013-10-06 09:38:00,
2013-10-06 03:39:00,42.6,16.2,30.21,SSW,207,10.0,17.0,34,0.00,,,0.00,Wunderground v.1.15,2013-10-06 09:39:00,
2013-10-06 03:40:00,42.6,16.2,30.22,SW,217,10.0,10.0,34,0.00,,,0.00,Wunderground v.1.15,2013-10-06 09:40:00,
2013-10-06 03:44:00,42.5,16.7,30.21,SE,135,10.0,14.0,35,0.00,,,0.00,Wunderground v.1.15,2013-10-06 09:44:00,
2013-10-06 03:45:00,42.5,16.7,30.21,WSW,239,9.0,14.0,35,0.00,,,0.00,Wunderground v.1.15,2013-10-06 09:45:00,
2013-10-06 03:46:00,42.5,16.7,30.21,SSW,195,9.0,14.0,35,0.00,,,0.00,Wunderground v.1.15,2013-10-06 09:46:00,
2013-10-06 03:47:00,42.4,16.6,30.21,SE,146,9.0,14.0,35,0.00,,,0.00,Wunderground v.1.15,2013-10-06 09:47:00,
2013-10-06 03:51:00,42.7,16.9,30.22,SW,222,9.0,13.0,35,0.00,,,0.00,Wunderground v.1.15,2013-10-06 09:51:00,
2013-10-06 03:52:00,42.8,17.0,30.22,SW,219,9.0,14.0,35,0.00,,,0.00,Wunderground v.1.15,2013-10-06 09:52:00,
2013-10-06 03:53:00,42.9,17.1,30.22,SW,219,9.0,14.0,35,0.00,,,0.00,Wunderground v.1.15,2013-10-06 09:53:00,
2013-10-06 03:56:00,42.9,17.1,30.22,SSW,210,10.0,14.0,35,0.00,,,0.00,Wunderground v.1.15,2013-10-06 09:56:00,
2013-10-06 03:57:00,42.9,17.1,30.22,SSW,202,11.0,14.0,35,0.00,,,0.00,Wunderground v.1.15,2013-10-06 09:57:00,
2013-10-06 03:58:00,43.0,17.2,30.22,WSW,246,11.0,19.0,35,0.00,,,0.00,Wunderground v.1.15,2013-10-06 09:58:00,
2013-10-06 04:02:00,43.0,17.8,30.22,SSW,208,10.0,11.0,36,0.00,,,0.00,Wunderground v.1.15,2013-10-06 10:02:00,
2013-10-06 04:03:00,43.0,17.8,30.22,SW,224,10.0,11.0,36,0.00,,,0.00,Wunderground v.1.15,2013-10-06 10:03:00,
2013-10-06 04:04:00,42.9,17.7,30.22,SSW,207,10.0,14.0,36,0.00,,,0.00,Wunderground v.1.15,2013-10-06 10:04:00,
2013-10-06 04:05:00,42.9,17.7,30.22,SW,222,10.0,14.0,36,0.00,,,0.00,Wunderground v.1.15,2013-10-06 10:05:00,
2013-10-06 04:08:00,42.9,18.4,30.22,SW,232,10.0,14.0,37,0.00,,,0.00,Wunderground v.1.15,2013-10-06 10:08:00,
2013-10-06 04:12:00,42.9,17.7,30.22,SW,215,11.0,14.0,36,0.00,,,0.00,Wunderground v.1.15,2013-10-06 10:12:00,
2013-10-06 04:13:00,42.9,18.4,30.22,SW,217,11.0,14.0,37,0.00,,,0.00,Wunderground v.1.15,2013-10-06 10:13:00,
2013-10-06 04:15:00,42.8,18.3,30.22,SSW,203,11.0,17.0,37,0.00,,,0.00,Wunderground v.1.15,2013-10-06 10:15:00,
2013-10-06 04:18:00,42.9,18.4,30.22,WNW,287,11.0,17.0,37,0.00,,,0.00,Wunderground v.1.15,2013-10-06 10:18:00,
2013-10-06 04:19:00,43.0,17.8,30.21,SSW,211,10.0,17.0,36,0.00,,,0.00,Wunderground v.1.15,2013-10-06 10:19:00,
2013-10-06 04:21:00,43.1,18.6,30.22,WSW,252,9.0,10.0,37,0.00,,,0.00,Wunderground v.1.15,2013-10-06 10:21:00,
2013-10-06 04:24:00,43.2,18.0,30.21,WSW,239,9.0,16.0,36,0.00,,,0.00,Wunderground v.1.15,2013-10-06 10:24:00,
2013-10-06 04:26:00,43.2,18.0,30.21,West,274,8.0,16.0,36,0.00,,,0.00,Wunderground v.1.15,2013-10-06 10:26:00,
2013-10-06 04:28:00,43.3,18.1,30.21,SW,225,8.0,16.0,36,0.00,,,0.00,Wunderground v.1.15,2013-10-06 10:28:00,
2013-10-06 04:30:00,43.4,18.8,30.21,SSW,208,7.0,8.0,37,0.00,,,0.00,Wunderground v.1.15,2013-10-06 10:30:00,
2013-10-06 04:31:00,43.5,18.9,30.22,West,269,8.0,8.0,37,0.00,,,0.00,Wunderground v.1.15,2013-10-06 10:31:00,
2013-10-06 04:32:00,43.5,18.3,30.22,WSW,243,8.0,8.0,36,0.00,,,0.00,Wunderground v.1.15,2013-10-06 10:32:00,
2013-10-06 04:33:00,43.5,18.3,30.22,West,263,7.0,8.0,36,0.00,,,0.00,Wunderground v.1.15,2013-10-06 10:33:00,
2013-10-06 04:34:00,43.6,18.4,30.21,SW,228,7.0,8.0,36,0.00,,,0.00,Wunderground v.1.15,2013-10-06 10:34:00,
2013-10-06 04:38:00,43.7,18.5,30.22,West,278,9.0,12.0,36,0.00,,,0.00,Wunderground v.1.15,2013-10-06 10:38:00,
2013-10-06 04:39:00,43.7,18.5,30.21,SW,229,9.0,12.0,36,0.00,,,0.00,Wunderground v.1.15,2013-10-06 10:39:00,
2013-10-06 04:40:00,43.7,18.5,30.21,West,264,8.0,8.0,36,0.00,,,0.00,Wunderground v.1.15,2013-10-06 10:40:00,
2013-10-06 04:41:00,43.7,19.1,30.21,WSW,246,8.0,8.0,37,0.00,,,0.00,Wunderground v.1.15,2013-10-06 10:41:00,
2013-10-06 04:43:00,43.7,19.1,30.21,WSW,239,8.0,12.0,37,0.00,,,0.00,Wunderground v.1.15,2013-10-06 10:43:00,
2013-10-06 04:47:00,43.9,19.3,30.21,WSW,245,7.0,12.0,37,0.00,,,0.00,Wunderground v.1.15,2013-10-06 10:47:00,
2013-10-06 04:48:00,43.9,19.3,30.21,West,264,7.0,12.0,37,0.00,,,0.00,Wunderground v.1.15,2013-10-06 10:48:00,
2013-10-06 04:49:00,43.9,19.3,30.21,SW,219,7.0,12.0,37,0.00,,,0.00,Wunderground v.1.15,2013-10-06 10:49:00,
2013-10-06 04:51:00,44.1,19.5,30.21,SW,232,8.0,11.0,37,0.00,,,0.00,Wunderground v.1.15,2013-10-06 10:51:00,
2013-10-06 04:54:00,44.3,19.6,30.21,WSW,245,8.0,11.0,37,0.00,,,0.00,Wunderground v.1.15,2013-10-06 10:54:00,
2013-10-06 04:57:00,44.4,19.7,30.21,SW,224,8.0,11.0,37,0.00,,,0.00,Wunderground v.1.15,2013-10-06 10:57:00,
2013-10-06 04:58:00,44.3,19.6,30.21,SW,232,8.0,11.0,37,0.00,,,0.00,Wunderground v.1.15,2013-10-06 10:58:00,
2013-10-06 04:59:00,44.3,19.6,30.21,West,263,7.0,11.0,37,0.00,,,0.00,Wunderground v.1.15,2013-10-06 10:59:00,
2013-10-06 05:01:00,44.3,19.6,30.21,SW,234,7.0,7.0,37,0.00,,,0.00,Wunderground v.1.15,2013-10-06 11:01:00,
2013-10-06 05:03:00,44.4,19.7,30.21,West,266,7.0,7.0,37,0.00,,,0.00,Wunderground v.1.15,2013-10-06 11:03:00,
2013-10-06 05:04:00,44.4,20.3,30.21,SSW,202,7.0,7.0,38,0.00,,,0.00,Wunderground v.1.15,2013-10-06 11:04:00,
2013-10-06 05:05:00,44.4,19.7,30.21,WSW,249,6.0,11.0,37,0.00,,,0.00,Wunderground v.1.15,2013-10-06 11:05:00,
2013-10-06 05:07:00,44.5,19.8,30.21,SW,219,7.0,11.0,37,0.00,,,0.00,Wunderground v.1.15,2013-10-06 11:07:00,
2013-10-06 05:08:00,44.5,19.8,30.21,WSW,252,7.0,11.0,37,0.00,,,0.00,Wunderground v.1.15,2013-10-06 11:08:00,
2013-10-06 05:09:00,44.4,19.7,30.21,West,266,7.0,11.0,37,0.00,,,0.00,Wunderground v.1.15,2013-10-06 11:09:00,
2013-10-06 05:10:00,44.4,19.7,30.21,WSW,249,6.0,8.0,37,0.00,,,0.00,Wunderground v.1.15,2013-10-06 11:10:00,
2013-10-06 05:13:00,44.4,20.3,30.21,SSW,212,6.0,8.0,38,0.00,,,0.00,Wunderground v.1.15,2013-10-06 11:13:00,
2013-10-06 05:14:00,44.4,20.3,30.21,SW,225,6.0,8.0,38,0.00,,,0.00,Wunderground v.1.15,2013-10-06 11:14:00,
2013-10-06 05:16:00,44.4,20.3,30.21,SW,229,5.0,8.0,38,0.00,,,0.00,Wunderground v.1.15,2013-10-06 11:16:00,
2013-10-06 05:19:00,44.1,20.1,30.21,WSW,239,5.0,8.0,38,0.00,,,0.00,Wunderground v.1.15,2013-10-06 11:19:00,
2013-10-06 05:20:00,44.2,20.2,30.21,West,274,5.0,6.0,38,0.00,,,0.00,Wunderground v.1.15,2013-10-06 11:20:00,
2013-10-06 05:21:00,44.2,20.2,30.21,SW,228,6.0,10.0,38,0.00,,,0.00,Wunderground v.1.15,2013-10-06 11:21:00,
2013-10-06 05:23:00,44.3,20.3,30.21,SW,229,6.0,10.0,38,0.00,,,0.00,Wunderground v.1.15,2013-10-06 11:23:00,
2013-10-06 05:24:00,44.3,20.3,30.21,West,259,7.0,10.0,38,0.00,,,0.00,Wunderground v.1.15,2013-10-06 11:24:00,
2013-10-06 05:27:00,44.5,20.4,30.21,WSW,253,8.0,10.0,38,0.00,,,0.00,Wunderground v.1.15,2013-10-06 11:27:00,
2013-10-06 05:29:00,44.5,20.4,30.21,West,278,8.0,11.0,38,0.00,,,0.00,Wunderground v.1.15,2013-10-06 11:29:00,
2013-10-06 05:30:00,44.5,20.4,30.21,SW,234,8.0,8.0,38,0.00,,,0.00,Wunderground v.1.15,2013-10-06 11:30:00,
2013-10-06 05:32:00,44.5,20.4,30.21,SW,215,8.0,11.0,38,0.00,,,0.00,Wunderground v.1.15,2013-10-06 11:32:00,
2013-10-06 05:33:00,44.5,21.0,30.21,SW,230,8.0,11.0,39,0.00,,,0.00,Wunderground v.1.15,2013-10-06 11:33:00,
2013-10-06 05:38:00,44.5,21.0,30.21,West,259,7.0,11.0,39,0.00,,,0.00,Wunderground v.1.15,2013-10-06 11:38:00,
2013-10-06 05:40:00,44.5,21.0,30.21,West,272,7.0,7.0,39,0.00,,,0.00,Wunderground v.1.15,2013-10-06 11:40:00,
2013-10-06 05:41:00,44.6,21.1,30.21,WSW,255,7.0,8.0,39,0.00,,,0.00,Wunderground v.1.15,2013-10-06 11:41:00,
2013-10-06 05:42:00,44.6,21.1,30.21,West,266,7.0,13.0,39,0.00,,,0.00,Wunderground v.1.15,2013-10-06 11:42:00,
2013-10-06 05:46:00,44.8,21.3,30.21,West,278,7.0,13.0,39,0.00,,,0.00,Wunderground v.1.15,2013-10-06 11:46:00,
2013-10-06 05:47:00,44.8,21.3,30.21,West,276,7.0,13.0,39,0.00,,,0.00,Wunderground v.1.15,2013-10-06 11:47:00,
2013-10-06 05:48:00,44.8,21.3,30.21,West,262,7.0,13.0,39,0.00,,,0.00,Wunderground v.1.15,2013-10-06 11:48:00,
2013-10-06 05:50:00,44.6,21.1,30.21,West,276,6.0,6.0,39,0.00,,,0.00,Wunderground v.1.15,2013-10-06 11:50:00,
2013-10-06 05:51:00,44.5,21.0,30.21,WNW,290,6.0,6.0,39,0.00,,,0.00,Wunderground v.1.15,2013-10-06 11:51:00,
2013-10-06 05:52:00,44.5,21.0,30.21,West,277,6.0,6.0,39,0.00,,,0.00,Wunderground v.1.15,2013-10-06 11:52:00,
2013-10-06 05:54:00,44.7,21.2,30.21,WSW,250,5.0,6.0,39,0.00,,,0.00,Wunderground v.1.15,2013-10-06 11:54:00,
2013-10-06 05:58:00,44.6,21.7,30.21,WSW,257,4.0,6.0,40,0.00,,,0.00,Wunderground v.1.15,2013-10-06 11:58:00,
2013-10-06 05:59:00,44.6,21.7,30.21,SSW,195,4.0,6.0,40,0.00,,,0.00,Wunderground v.1.15,2013-10-06 11:59:00,
2013-10-06 06:00:00,44.6,21.7,30.21,SSW,197,4.0,4.0,40,0.00,,,0.00,Wunderground v.1.15,2013-10-06 12:00:00,
2013-10-06 06:04:00,44.3,22.1,30.21,West,264,4.0,4.0,41,0.00,,,0.00,Wunderground v.1.15,2013-10-06 12:04:00,
2013-10-06 06:05:00,44.3,22.1,30.21,WSW,239,3.0,4.0,41,0.00,,,0.00,Wunderground v.1.15,2013-10-06 12:05:00,
2013-10-06 06:09:00,44.1,21.9,30.21,West,271,3.0,4.0,41,0.00,,,0.00,Wunderground v.1.15,2013-10-06 12:09:00,
2013-10-06 06:10:00,44.2,22.0,30.20,SSW,200,3.0,6.0,41,0.00,,,0.00,Wunderground v.1.15,2013-10-06 12:10:00,
2013-10-06 06:11:00,44.1,21.9,30.20,West,260,3.0,6.0,41,0.00,,,0.00,Wunderground v.1.15,2013-10-06 12:11:00,
2013-10-06 06:13:00,44.1,22.4,30.20,South,191,3.0,6.0,42,0.00,,,0.00,Wunderground v.1.15,2013-10-06 12:13:00,
2013-10-06 06:17:00,43.8,24.3,30.20,WNW,284,3.0,6.0,46,0.00,,,0.00,Wunderground v.1.15,2013-10-06 12:17:00,
2013-10-06 06:18:00,43.7,24.2,30.20,West,260,2.0,6.0,46,0.00,,,0.00,Wunderground v.1.15,2013-10-06 12:18:00,
2013-10-06 06:19:00,43.6,24.2,30.20,WNW,283,2.0,6.0,46,0.00,,,0.00,Wunderground v.1.15,2013-10-06 12:19:00,
2013-10-06 06:21:00,43.6,24.2,30.20,SSW,198,2.0,2.0,46,0.00,,,0.00,Wunderground v.1.15,2013-10-06 12:21:00,
2013-10-06 06:22:00,43.6,23.1,30.20,West,266,1.0,2.0,44,0.00,,,0.00,Wunderground v.1.15,2013-10-06 12:22:00,
2013-10-06 06:24:00,43.5,22.5,30.20,NNE,32,1.0,2.0,43,0.00,,,0.00,Wunderground v.1.15,2013-10-06 12:24:00,
2013-10-06 06:25:00,43.5,22.5,30.20,North,351,1.0,2.0,43,0.00,,,0.00,Wunderground v.1.15,2013-10-06 12:25:00,
2013-10-06 06:26:00,43.4,22.4,30.20,North,353,1.0,2.0,43,0.00,,,0.00,Wunderground v.1.15,2013-10-06 12:26:00,
2013-10-06 06:27:00,43.2,22.2,30.20,North,352,1.0,2.0,43,0.00,,,0.00,Wunderground v.1.15,2013-10-06 12:27:00,
2013-10-06 06:30:00,42.6,22.2,30.20,ENE,60,1.0,2.0,44,0.00,,,0.00,Wunderground v.1.15,2013-10-06 12:30:00,
2013-10-06 06:32:00,42.2,22.4,30.20,NE,55,1.0,3.0,45,0.00,,,0.00,Wunderground v.1.15,2013-10-06 12:32:00,
2013-10-06 06:33:00,42.0,22.7,30.20,NNE,23,1.0,3.0,46,0.00,,,0.00,Wunderground v.1.15,2013-10-06 12:33:00,
2013-10-06 06:37:00,41.0,21.8,30.20,East,83,1.0,3.0,46,0.00,,,0.00,Wunderground v.1.15,2013-10-06 12:37:00,
2013-10-06 06:40:00,40.6,21.9,30.20,West,278,1.0,2.0,47,0.00,,,0.00,Wunderground v.1.15,2013-10-06 12:40:00,
2013-10-06 06:41:00,40.5,21.8,30.20,WNW,283,1.0,2.0,47,0.00,,,0.00,Wunderground v.1.15,2013-10-06 12:41:00,
2013-10-06 06:42:00,40.5,21.8,30.20,NNE,22,1.0,3.0,47,0.00,,,0.00,Wunderground v.1.15,2013-10-06 12:42:00,
2013-10-06 06:45:00,40.6,21.9,30.20,NNE,22,1.0,3.0,47,0.00,,,0.00,Wunderground v.1.15,2013-10-06 12:45:00,
2013-10-06 06:47:00,40.6,21.9,30.20,ENE,62,1.0,3.0,47,0.00,,,0.00,Wunderground v.1.15,2013-10-06 12:47:00,
2013-10-06 06:48:00,40.6,21.9,30.20,ENE,60,1.0,3.0,47,0.00,,,0.00,Wunderground v.1.15,2013-10-06 12:48:00,
2013-10-06 06:49:00,40.5,21.8,30.20,NNE,15,1.0,3.0,47,0.00,,,0.00,Wunderground v.1.15,2013-10-06 12:49:00,
2013-10-06 06:51:00,40.1,22.0,30.20,WSW,255,1.0,2.0,48,0.00,,,0.00,Wunderground v.1.15,2013-10-06 12:51:00,
2013-10-06 06:53:00,39.7,21.6,30.20,West,263,1.0,2.0,48,0.00,,,0.00,Wunderground v.1.15,2013-10-06 12:53:00,
2013-10-06 06:54:00,39.6,22.0,30.20,West,267,1.0,2.0,49,0.00,,,0.00,Wunderground v.1.15,2013-10-06 12:54:00,
2013-10-06 06:56:00,39.7,22.1,30.20,NE,53,1.0,2.0,49,0.00,,,0.00,Wunderground v.1.15,2013-10-06 12:56:00,
2013-10-06 06:59:00,39.7,21.6,30.20,North,7,1.0,3.0,48,0.00,,,0.00,Wunderground v.1.15,2013-10-06 12:59:00,
2013-10-06 07:01:00,39.7,21.6,30.20,North,11,1.0,1.0,48,0.00,,,0.00,Wunderground v.1.15,2013-10-06 13:01:00,
2013-10-06 07:04:00,39.7,22.1,30.20,North,11,1.0,1.0,49,0.00,,,0.00,Wunderground v.1.15,2013-10-06 13:04:00,
2013-10-06 07:05:00,39.5,22.4,30.20,SSE,153,1.0,1.0,50,0.00,,,0.00,Wunderground v.1.15,2013-10-06 13:05:00,
2013-10-06 07:07:00,39.4,21.8,30.20,ESE,112,1.0,1.0,49,0.00,,,0.00,Wunderground v.1.15,2013-10-06 13:07:00,
2013-10-06 07:08:00,39.5,21.9,30.20,ESE,112,1.0,1.0,49,0.00,,,0.00,Wunderground v.1.15,2013-10-06 13:08:00,
2013-10-06 07:10:00,39.4,22.3,30.20,ESE,111,0.0,0.0,50,0.00,,,0.00,Wunderground v.1.15,2013-10-06 13:10:00,
2013-10-06 07:11:00,39.3,22.2,30.20,ESE,112,0.0,1.0,50,0.00,,,0.00,Wunderground v.1.15,2013-10-06 13:11:00,
2013-10-06 07:14:00,38.9,21.8,30.19,ESE,112,0.0,2.0,50,0.00,,,0.00,Wunderground v.1.15,2013-10-06 13:14:00,
2013-10-06 07:15:00,38.9,22.3,30.20,SE,124,0.0,2.0,51,0.00,,,0.00,Wunderground v.1.15,2013-10-06 13:15:00,
2013-10-06 07:16:00,38.9,22.3,30.19,WNW,283,1.0,2.0,51,0.00,,,0.00,Wunderground v.1.15,2013-10-06 13:16:00,
2013-10-06 07:17:00,38.8,23.1,30.19,South,173,1.0,2.0,53,0.00,,,0.00,Wunderground v.1.15,2013-10-06 13:17:00,
2013-10-06 07:18:00,38.8,24.0,30.19,SW,235,1.0,2.0,55,0.00,,,0.00,Wunderground v.1.15,2013-10-06 13:18:00,
2013-10-06 07:19:00,39.0,24.2,30.19,WSW,243,1.0,2.0,55,0.00,,,0.00,Wunderground v.1.15,2013-10-06 13:19:00,
2013-10-06 07:20:00,39.3,23.1,30.19,West,271,1.0,2.0,52,0.00,,,0.00,Wunderground v.1.15,2013-10-06 13:20:00,
2013-10-06 07:22:00,39.7,23.0,30.19,NW,314,1.0,2.0,51,0.00,,,0.00,Wunderground v.1.15,2013-10-06 13:22:00,
2013-10-06 07:26:00,39.2,22.6,30.19,East,84,1.0,2.0,51,0.00,,,0.00,Wunderground v.1.15,2013-10-06 13:26:00,
2013-10-06 07:27:00,39.0,22.8,30.19,ENE,76,1.0,2.0,52,0.00,,,0.00,Wunderground v.1.15,2013-10-06 13:27:00,
2013-10-06 07:28:00,38.8,22.7,30.19,ENE,77,1.0,2.0,52,0.00,,,0.00,Wunderground v.1.15,2013-10-06 13:28:00,
2013-10-06 07:29:00,38.7,22.6,30.19,ENE,77,1.0,2.0,52,0.00,,,0.00,Wunderground v.1.15,2013-10-06 13:29:00,
2013-10-06 07:31:00,38.6,22.9,30.19,ENE,77,1.0,1.0,53,0.00,,,0.00,Wunderground v.1.15,2013-10-06 13:31:00,
2013-10-06 07:33:00,39.0,23.7,30.19,ENE,78,1.0,1.0,54,0.00,,,0.00,Wunderground v.1.15,2013-10-06 13:33:00,
2013-10-06 07:34:00,39.2,31.9,30.19,East,79,1.0,1.0,75,0.00,,,0.00,Wunderground v.1.15,2013-10-06 13:34:00,
2013-10-06 07:35:00,39.4,32.1,30.19,ENE,78,1.0,1.0,75,0.00,,,0.00,Wunderground v.1.15,2013-10-06 13:35:00,
2013-10-06 07:36:00,39.5,24.7,30.19,ENE,77,1.0,1.0,55,0.00,,,0.00,Wunderground v.1.15,2013-10-06 13:36:00,
2013-10-06 07:38:00,39.6,23.9,30.19,ENE,63,0.0,1.0,53,0.00,,,0.00,Wunderground v.1.15,2013-10-06 13:38:00,
2013-10-06 07:40:00,39.6,23.9,30.20,ENE,63,0.0,0.0,53,0.00,,,0.00,Wunderground v.1.15,2013-10-06 13:40:00,
2013-10-06 07:41:00,39.5,23.8,30.20,ENE,62,0.0,0.0,53,0.00,,,0.00,Wunderground v.1.15,2013-10-06 13:41:00,
2013-10-06 07:44:00,39.6,24.3,30.19,NNW,332,0.0,3.0,54,0.00,,,0.00,Wunderground v.1.15,2013-10-06 13:44:00,
2013-10-06 07:45:00,39.6,24.3,30.19,NW,307,0.0,3.0,54,0.00,,,0.00,Wunderground v.1.15,2013-10-06 13:45:00,
2013-10-06 07:46:00,39.5,24.2,30.19,NW,307,0.0,3.0,54,0.00,,,0.00,Wunderground v.1.15,2013-10-06 13:46:00,
2013-10-06 07:47:00,39.5,24.7,30.20,West,264,1.0,3.0,55,0.00,,,0.00,Wunderground v.1.15,2013-10-06 13:47:00,
2013-10-06 07:49:00,39.6,23.4,30.19,West,278,1.0,3.0,52,0.00,,,0.00,Wunderground v.1.15,2013-10-06 13:49:00,
2013-10-06 07:50:00,39.9,23.7,30.19,WNW,282,1.0,2.0,52,0.00,,,0.00,Wunderground v.1.15,2013-10-06 13:50:00,
2013-10-06 07:52:00,40.1,23.9,30.19,West,271,1.0,2.0,52,0.00,,,0.00,Wunderground v.1.15,2013-10-06 13:52:00,
2013-10-06 07:54:00,40.4,24.1,30.19,North,351,1.0,2.0,52,0.00,,,0.00,Wunderground v.1.15,2013-10-06 13:54:00,
2013-10-06 07:55:00,40.5,24.2,30.19,North,359,1.0,2.0,52,0.00,,,0.00,Wunderground v.1.15,2013-10-06 13:55:00,
2013-10-06 07:57:00,40.8,25.0,30.20,ENE,64,1.0,3.0,53,0.00,,,0.00,Wunderground v.1.15,2013-10-06 13:57:00,
2013-10-06 08:00:00,41.4,26.9,30.20,ENE,64,1.0,1.0,56,0.00,,,0.00,Wunderground v.1.15,2013-10-06 14:00:00,
2013-10-06 08:01:00,41.5,26.5,30.20,SSW,204,1.0,2.0,55,0.00,,,0.00,Wunderground v.1.15,2013-10-06 14:01:00,
2013-10-06 08:03:00,41.7,25.8,30.20,SW,232,1.0,2.0,53,0.00,,,0.00,Wunderground v.1.15,2013-10-06 14:03:00,
2013-10-06 08:04:00,41.8,25.9,30.20,NNW,348,1.0,2.0,53,0.00,,,0.00,Wunderground v.1.15,2013-10-06 14:04:00,
2013-10-06 08:07:00,42.4,25.5,30.20,NNW,348,1.0,2.0,51,0.00,,,0.00,Wunderground v.1.15,2013-10-06 14:07:00,
2013-10-06 08:09:00,43.0,25.6,30.20,NE,56,1.0,3.0,50,0.00,,,0.00,Wunderground v.1.15,2013-10-06 14:09:00,
2013-10-06 08:11:00,43.7,25.3,30.20,ENE,65,1.0,4.0,48,0.00,,,0.00,Wunderground v.1.15,2013-10-06 14:11:00,
2013-10-06 08:13:00,44.3,24.8,30.20,ENE,70,1.0,4.0,46,0.00,,,0.00,Wunderground v.1.15,2013-10-06 14:13:00,
2013-10-06 08:14:00,44.7,25.2,30.20,SSW,204,1.0,4.0,46,0.00,,,0.00,Wunderground v.1.15,2013-10-06 14:14:00,
2013-10-06 08:15:00,45.0,26.5,30.20,SSW,195,1.0,4.0,48,0.00,,,0.00,Wunderground v.1.15,2013-10-06 14:15:00,
2013-10-06 08:17:00,45.5,27.4,30.20,SSW,195,1.0,4.0,49,0.00,,,0.00,Wunderground v.1.15,2013-10-06 14:17:00,
2013-10-06 08:19:00,45.9,27.8,30.20,East,97,1.0,4.0,49,0.00,,,0.00,Wunderground v.1.15,2013-10-06 14:19:00,
2013-10-06 08:20:00,46.0,26.4,30.20,SE,128,1.0,4.0,46,0.00,,,0.00,Wunderground v.1.15,2013-10-06 14:20:00,
2013-10-06 08:21:00,46.0,26.9,30.20,West,260,1.0,4.0,47,0.00,,,0.00,Wunderground v.1.15,2013-10-06 14:21:00,
2013-10-06 08:25:00,46.3,26.1,30.20,SW,232,2.0,7.0,45,0.00,,,0.00,Wunderground v.1.15,2013-10-06 14:25:00,
2013-10-06 08:26:00,46.6,26.4,30.19,SSW,202,2.0,7.0,45,0.00,,,0.00,Wunderground v.1.15,2013-10-06 14:26:00,
2013-10-06 08:27:00,47.1,25.2,30.19,SSW,208,3.0,7.0,42,0.00,,,0.00,Wunderground v.1.15,2013-10-06 14:27:00,
2013-10-06 08:28:00,47.6,25.6,30.19,SSE,149,4.0,7.0,42,0.00,,,0.00,Wunderground v.1.15,2013-10-06 14:28:00,
2013-10-06 08:30:00,48.4,25.8,30.19,SSW,198,4.0,4.0,41,0.00,,,0.00,Wunderground v.1.15,2013-10-06 14:30:00,
2013-10-06 08:34:00,49.4,25.4,30.19,SW,225,6.0,9.0,39,0.00,,,0.00,Wunderground v.1.15,2013-10-06 14:34:00,
2013-10-06 08:35:00,49.6,25.0,30.19,SW,218,6.0,9.0,38,0.00,,,0.00,Wunderground v.1.15,2013-10-06 14:35:00,
2013-10-06 08:37:00,49.9,25.3,30.19,SW,232,6.0,9.0,38,0.00,,,0.00,Wunderground v.1.15,2013-10-06 14:37:00,
2013-10-06 08:40:00,50.2,25.5,30.19,SW,229,6.0,9.0,38,0.00,,,0.00,Wunderground v.1.15,2013-10-06 14:40:00,
2013-10-06 08:41:00,50.3,25.0,30.19,SW,217,7.0,9.0,37,0.00,,,0.00,Wunderground v.1.15,2013-10-06 14:41:00,
2013-10-06 08:42:00,50.4,25.1,30.19,SW,218,7.0,9.0,37,0.00,,,0.00,Wunderground v.1.15,2013-10-06 14:42:00,
2013-10-06 08:44:00,50.6,25.3,30.19,SSW,198,7.0,10.0,37,0.00,,,0.00,Wunderground v.1.15,2013-10-06 14:44:00,
2013-10-06 08:47:00,50.8,25.4,30.19,SW,224,7.0,10.0,37,0.00,,,0.00,Wunderground v.1.15,2013-10-06 14:47:00,
2013-10-06 08:48:00,50.9,25.5,30.19,WSW,240,7.0,10.0,37,0.00,,,0.00,Wunderground v.1.15,2013-10-06 14:48:00,
2013-10-06 08:50:00,51.0,25.6,30.19,SW,235,7.0,7.0,37,0.00,,,0.00,Wunderground v.1.15,2013-10-06 14:50:00,
2013-10-06 08:51:00,51.1,25.7,30.19,WSW,252,7.0,11.0,37,0.00,,,0.00,Wunderground v.1.15,2013-10-06 14:51:00,
2013-10-06 08:52:00,51.2,25.1,30.19,SW,223,7.0,11.0,36,0.00,,,0.00,Wunderground v.1.15,2013-10-06 14:52:00,
2013-10-06 08:56:00,51.4,25.3,30.19,SSW,198,8.0,11.0,36,0.00,,,0.00,Wunderground v.1.15,2013-10-06 14:56:00,
2013-10-06 08:58:00,51.6,25.5,30.19,SW,235,8.0,11.0,36,0.00,,,0.00,Wunderground v.1.15,2013-10-06 14:58:00,
2013-10-06 08:59:00,51.6,25.5,30.19,SW,221,7.0,11.0,36,0.00,,,0.00,Wunderground v.1.15,2013-10-06 14:59:00,
2013-10-06 09:00:00,51.7,26.2,30.19,WSW,239,7.0,8.0,37,0.00,,,0.00,Wunderground v.1.15,2013-10-06 15:00:00,
2013-10-06 09:01:00,51.8,25.0,30.19,WSW,245,7.0,8.0,35,0.00,,,0.00,Wunderground v.1.15,2013-10-06 15:01:00,
2013-10-06 09:03:00,52.1,25.3,30.19,SSW,212,7.0,8.0,35,0.00,,,0.00,Wunderground v.1.15,2013-10-06 15:03:00,
2013-10-06 09:05:00,52.4,26.2,30.19,West,281,6.0,8.0,36,0.00,,,0.00,Wunderground v.1.15,2013-10-06 15:05:00,
2013-10-06 09:07:00,52.6,26.4,30.19,West,274,6.0,8.0,36,0.00,,,0.00,Wunderground v.1.15,2013-10-06 15:07:00,
2013-10-06 09:11:00,52.9,25.3,30.19,SSW,201,5.0,6.0,34,0.00,,,0.00,Wunderground v.1.15,2013-10-06 15:11:00,
2013-10-06 09:12:00,52.9,26.0,30.18,SW,222,5.0,6.0,35,0.00,,,0.00,Wunderground v.1.15,2013-10-06 15:12:00,
2013-10-06 09:13:00,53.0,26.7,30.18,SW,235,5.0,6.0,36,0.00,,,0.00,Wunderground v.1.15,2013-10-06 15:13:00,
2013-10-06 09:14:00,53.1,26.1,30.18,WSW,241,5.0,9.0,35,0.00,,,0.00,Wunderground v.1.15,2013-10-06 15:14:00,
2013-10-06 09:17:00,53.2,26.9,30.19,West,277,5.0,9.0,36,0.00,,,0.00,Wunderground v.1.15,2013-10-06 15:17:00,
2013-10-06 09:18:00,53.2,25.5,30.18,WNW,295,6.0,9.0,34,0.00,,,0.00,Wunderground v.1.15,2013-10-06 15:18:00,
2013-10-06 09:20:00,53.2,26.2,30.18,WSW,241,5.0,6.0,35,0.00,,,0.00,Wunderground v.1.15,2013-10-06 15:20:00,
2013-10-06 09:21:00,53.3,26.3,30.18,WSW,239,5.0,13.0,35,0.00,,,0.00,Wunderground v.1.15,2013-10-06 15:21:00,
2013-10-06 09:24:00,53.3,25.6,30.18,West,272,6.0,13.0,34,0.00,,,0.00,Wunderground v.1.15,2013-10-06 15:24:00,
2013-10-06 09:26:00,53.3,24.9,30.18,SSW,205,7.0,13.0,33,0.00,,,0.00,Wunderground v.1.15,2013-10-06 15:26:00,
2013-10-06 09:27:00,53.3,25.6,30.18,WNW,293,7.0,13.0,34,0.00,,,0.00,Wunderground v.1.15,2013-10-06 15:27:00,
2013-10-06 09:28:00,53.4,26.4,30.18,West,269,7.0,13.0,35,0.00,,,0.00,Wunderground v.1.15,2013-10-06 15:28:00,
2013-10-06 09:29:00,53.4,26.4,30.18,West,276,7.0,13.0,35,0.00,,,0.00,Wunderground v.1.15,2013-10-06 15:29:00,
2013-10-06 09:31:00,53.4,25.7,30.18,WSW,249,8.0,12.0,34,0.00,,,0.00,Wunderground v.1.15,2013-10-06 15:31:00,
2013-10-06 09:32:00,53.4,25.0,30.18,SW,235,8.0,12.0,33,0.00,,,0.00,Wunderground v.1.15,2013-10-06 15:32:00,
2013-10-06 09:35:00,53.3,25.6,30.18,SW,236,8.0,12.0,34,0.00,,,0.00,Wunderground v.1.15,2013-10-06 15:35:00,
2013-10-06 09:36:00,53.4,25.7,30.18,West,269,8.0,12.0,34,0.00,,,0.00,Wunderground v.1.15,2013-10-06 15:36:00,
2013-10-06 09:37:00,53.5,26.5,30.18,SW,232,8.0,14.0,35,0.00,,,0.00,Wunderground v.1.15,2013-10-06 15:37:00,
2013-10-06 09:39:00,53.5,25.8,30.18,WSW,257,8.0,14.0,34,0.00,,,0.00,Wunderground v.1.15,2013-10-06 15:39:00,
2013-10-06 09:40:00,53.5,25.8,30.18,SSE,162,9.0,9.0,34,0.00,,,0.00,Wunderground v.1.15,2013-10-06 15:40:00,
2013-10-06 09:41:00,53.5,25.8,30.18,WSW,249,9.0,14.0,34,0.00,,,0.00,Wunderground v.1.15,2013-10-06 15:41:00,
2013-10-06 09:42:00,53.5,25.8,30.18,WSW,240,9.0,14.0,34,0.00,,,0.00,Wunderground v.1.15,2013-10-06 15:42:00,
2013-10-06 09:43:00,53.5,25.8,30.18,SW,233,9.0,14.0,34,0.00,,,0.00,Wunderground v.1.15,2013-10-06 15:43:00,
2013-10-06 09:46:00,53.4,25.7,30.18,West,267,10.0,14.0,34,0.00,,,0.00,Wunderground v.1.15,2013-10-06 15:46:00,
2013-10-06 09:49:00,53.4,25.7,30.18,SW,228,10.0,14.0,34,0.00,,,0.00,Wunderground v.1.15,2013-10-06 15:49:00,
2013-10-06 09:50:00,53.4,25.7,30.18,SW,232,10.0,10.0,34,0.00,,,0.00,Wunderground v.1.15,2013-10-06 15:50:00,
2013-10-06 09:51:00,53.5,25.8,30.18,WSW,238,10.0,12.0,34,0.00,,,0.00,Wunderground v.1.15,2013-10-06 15:51:00,
2013-10-06 09:52:00,53.5,25.8,30.18,WSW,249,10.0,12.0,34,0.00,,,0.00,Wunderground v.1.15,2013-10-06 15:52:00,
2013-10-06 09:56:00,53.6,26.6,30.18,SSW,194,9.0,13.0,35,0.00,,,0.00,Wunderground v.1.15,2013-10-06 15:56:00,
2013-10-06 09:57:00,53.6,25.9,30.18,SW,226,9.0,13.0,34,0.00,,,0.00,Wunderground v.1.15,2013-10-06 15:57:00,
2013-10-06 09:59:00,53.6,25.9,30.18,WSW,242,9.0,13.0,34,0.00,,,0.00,Wunderground v.1.15,2013-10-06 15:59:00,
2013-10-06 10:00:00,53.6,25.9,30.18,WSW,240,9.0,9.0,34,0.00,,,0.00,Wunderground v.1.15,2013-10-06 16:00:00,
2013-10-06 10:01:00,53.7,26.0,30.18,WSW,246,9.0,9.0,34,0.00,,,0.00,Wunderground v.1.15,2013-10-06 16:01:00,
2013-10-06 10:05:00,53.7,26.0,30.18,SSW,210,10.0,15.0,34,0.00,,,0.00,Wunderground v.1.15,2013-10-06 16:05:00,
2013-10-06 10:06:00,53.7,26.0,30.18,WSW,242,10.0,15.0,34,0.00,,,0.00,Wunderground v.1.15,2013-10-06 16:06:00,
2013-10-06 10:07:00,53.8,26.1,30.18,SSW,197,10.0,15.0,34,0.00,,,0.00,Wunderground v.1.15,2013-10-06 16:07:00,
2013-10-06 10:11:00,54.2,25.7,30.18,SW,226,10.0,11.0,33,0.00,,,0.00,Wunderground v.1.15,2013-10-06 16:11:00,
2013-10-06 10:12:00,54.2,26.4,30.18,WSW,246,10.0,11.0,34,0.00,,,0.00,Wunderground v.1.15,2013-10-06 16:12:00,
2013-10-06 10:14:00,54.3,26.5,30.18,WSW,242,9.0,19.0,34,0.00,,,0.00,Wunderground v.1.15,2013-10-06 16:14:00,
2013-10-06 10:16:00,54.3,26.5,30.18,SW,223,9.0,19.0,34,0.00,,,0.00,Wunderground v.1.15,2013-10-06 16:16:00,
2013-10-06 10:17:00,54.3,25.8,30.18,SW,228,9.0,19.0,33,0.00,,,0.00,Wunderground v.1.15,2013-10-06 16:17:00,
2013-10-06 10:19:00,54.4,25.9,30.18,West,271,9.0,19.0,33,0.00,,,0.00,Wunderground v.1.15,2013-10-06 16:19:00,
2013-10-06 10:20:00,54.4,26.6,30.19,SW,224,9.0,9.0,34,0.00,,,0.00,Wunderground v.1.15,2013-10-06 16:20:00,
2013-10-06 10:22:00,54.5,26.7,30.18,WSW,258,9.0,12.0,34,0.00,,,0.00,Wunderground v.1.15,2013-10-06 16:22:00,
2013-10-06 10:23:00,54.5,26.0,30.18,South,191,9.0,12.0,33,0.00,,,0.00,Wunderground v.1.15,2013-10-06 16:23:00,
2013-10-06 10:27:00,54.7,26.1,30.18,West,265,8.0,12.0,33,0.00,,,0.00,Wunderground v.1.15,2013-10-06 16:27:00,
2013-10-06 10:28:00,54.8,26.2,30.18,SW,236,8.0,12.0,33,0.00,,,0.00,Wunderground v.1.15,2013-10-06 16:28:00,
2013-10-06 10:29:00,54.8,25.5,30.18,SW,221,9.0,12.0,32,0.00,,,0.00,Wunderground v.1.15,2013-10-06 16:29:00,
2013-10-06 10:30:00,54.9,26.3,30.18,WNW,298,8.0,9.0,33,0.00,,,0.00,Wunderground v.1.15,2013-10-06 16:30:00,
2013-10-06 10:31:00,55.0,26.4,30.18,WSW,252,9.0,11.0,33,0.00,,,0.00,Wunderground v.1.15,2013-10-06 16:31:00,
2013-10-06 10:32:00,55.0,25.6,30.18,SW,229,8.0,18.0,32,0.00,,,0.00,Wunderground v.1.15,2013-10-06 16:32:00,
2013-10-06 10:36:00,55.4,26.7,30.18,SW,225,9.0,18.0,33,0.00,,,0.00,Wunderground v.1.15,2013-10-06 16:36:00,
2013-10-06 10:37:00,55.4,26.0,30.18,SW,235,9.0,18.0,32,0.00,,,0.00,Wunderground v.1.15,2013-10-06 16:37:00,
2013-10-06 10:38:00,55.3,25.9,30.18,SW,217,9.0,18.0,32,0.00,,,0.00,Wunderground v.1.15,2013-10-06 16:38:00,
2013-10-06 10:39:00,55.4,26.7,30.18,West,262,9.0,18.0,33,0.00,,,0.00,Wunderground v.1.15,2013-10-06 16:39:00,
2013-10-06 10:41:00,55.5,26.1,30.18,SW,233,9.0,12.0,32,0.00,,,0.00,Wunderground v.1.15,2013-10-06 16:41:00,
2013-10-06 10:43:00,55.5,26.1,30.18,West,262,9.0,14.0,32,0.00,,,0.00,Wunderground v.1.15,2013-10-06 16:43:00,
2013-10-06 10:44:00,55.5,26.1,30.18,West,266,9.0,14.0,32,0.00,,,0.00,Wunderground v.1.15,2013-10-06 16:44:00,
2013-10-06 10:45:00,55.5,26.1,30.18,West,278,10.0,14.0,32,0.00,,,0.00,Wunderground v.1.15,2013-10-06 16:45:00,
2013-10-06 10:46:00,55.4,26.0,30.18,West,269,10.0,15.0,32,0.00,,,0.00,Wunderground v.1.15,2013-10-06 16:46:00,
2013-10-06 10:49:00,55.4,26.7,30.18,SSW,204,10.0,15.0,33,0.00,,,0.00,Wunderground v.1.15,2013-10-06 16:49:00,
2013-10-06 10:50:00,55.4,26.7,30.18,WSW,246,10.0,10.0,33,0.00,,,0.00,Wunderground v.1.15,2013-10-06 16:50:00,
2013-10-06 10:52:00,55.6,26.9,30.18,SW,221,10.0,12.0,33,0.00,,,0.00,Wunderground v.1.15,2013-10-06 16:52:00,
2013-10-06 10:54:00,55.7,27.0,30.18,WSW,257,10.0,12.0,33,0.00,,,0.00,Wunderground v.1.15,2013-10-06 16:54:00,
2013-10-06 10:56:00,55.9,26.4,30.18,WSW,238,9.0,12.0,32,0.00,,,0.00,Wunderground v.1.15,2013-10-06 16:56:00,
2013-10-06 10:57:00,55.9,26.4,30.18,NW,304,9.0,12.0,32,0.00,,,0.00,Wunderground v.1.15,2013-10-06 16:57:00,
2013-10-06 10:58:00,56.1,26.6,30.18,WSW,240,9.0,12.0,32,0.00,,,0.00,Wunderground v.1.15,2013-10-06 16:58:00,
2013-10-06 10:59:00,56.1,26.6,30.18,WSW,252,9.0,12.0,32,0.00,,,0.00,Wunderground v.1.15,2013-10-06 16:59:00,
2013-10-06 11:05:00,56.1,26.6,30.17,NW,310,10.0,10.0,32,0.00,,,0.00,Wunderground v.1.15,2013-10-06 17:05:00,
2013-10-06 11:06:00,56.3,28.3,30.17,SW,233,10.0,10.0,34,0.00,,,0.00,Wunderground v.1.15,2013-10-06 17:06:00,
2013-10-06 11:07:00,56.3,27.5,30.17,West,264,10.0,10.0,33,0.00,,,0.00,Wunderground v.1.15,2013-10-06 17:07:00,
2013-10-06 11:08:00,56.4,27.6,30.17,West,276,10.0,10.0,33,0.00,,,0.00,Wunderground v.1.15,2013-10-06 17:08:00,
2013-10-06 11:09:00,56.5,27.0,30.17,West,263,10.0,10.0,32,0.00,,,0.00,Wunderground v.1.15,2013-10-06 17:09:00,
2013-10-06 11:13:00,56.4,26.9,30.17,WSW,246,10.0,13.0,32,0.00,,,0.00,Wunderground v.1.15,2013-10-06 17:13:00,
2013-10-06 11:15:00,56.3,26.8,30.18,WSW,239,10.0,15.0,32,0.00,,,0.00,Wunderground v.1.15,2013-10-06 17:15:00,
2013-10-06 11:16:00,56.3,26.8,30.18,WSW,243,11.0,15.0,32,0.00,,,0.00,Wunderground v.1.15,2013-10-06 17:16:00,
2013-10-06 11:17:00,56.2,26.7,30.17,West,267,11.0,15.0,32,0.00,,,0.00,Wunderground v.1.15,2013-10-06 17:17:00,
2013-10-06 11:18:00,56.3,26.8,30.18,West,267,10.0,15.0,32,0.00,,,0.00,Wunderground v.1.15,2013-10-06 17:18:00,
2013-10-06 11:21:00,56.7,27.9,30.18,West,280,10.0,10.0,33,0.00,,,0.00,Wunderground v.1.15,2013-10-06 17:21:00,
2013-10-06 11:22:00,56.7,27.1,30.18,WSW,252,10.0,10.0,32,0.00,,,0.00,Wunderground v.1.15,2013-10-06 17:22:00,
2013-10-06 11:24:00,56.7,27.1,30.18,SW,229,9.0,10.0,32,0.00,,,0.00,Wunderground v.1.15,2013-10-06 17:24:00,
2013-10-06 11:26:00,56.9,27.3,30.17,SW,224,8.0,10.0,32,0.00,,,0.00,Wunderground v.1.15,2013-10-06 17:26:00,
2013-10-06 11:27:00,57.1,27.5,30.18,West,267,8.0,10.0,32,0.00,,,0.00,Wunderground v.1.15,2013-10-06 17:27:00,
2013-10-06 11:28:00,57.1,26.7,30.18,SW,235,8.0,10.0,31,0.00,,,0.00,Wunderground v.1.15,2013-10-06 17:28:00,
2013-10-06 11:32:00,57.0,27.4,30.17,West,263,8.0,11.0,32,0.00,,,0.00,Wunderground v.1.15,2013-10-06 17:32:00,
2013-10-06 11:33:00,57.0,27.4,30.17,WSW,249,8.0,13.0,32,0.00,,,0.00,Wunderground v.1.15,2013-10-06 17:33:00,
2013-10-06 11:34:00,57.0,26.6,30.17,SW,224,9.0,13.0,31,0.00,,,0.00,Wunderground v.1.15,2013-10-06 17:34:00,
2013-10-06 11:36:00,57.0,27.4,30.17,West,263,9.0,13.0,32,0.00,,,0.00,Wunderground v.1.15,2013-10-06 17:36:00,
2013-10-06 11:39:00,57.2,27.6,30.17,WSW,238,9.0,13.0,32,0.00,,,0.00,Wunderground v.1.15,2013-10-06 17:39:00,
2013-10-06 11:40:00,57.2,28.3,30.18,WNW,290,9.0,9.0,33,0.00,,,0.00,Wunderground v.1.15,2013-10-06 17:40:00,
2013-10-06 11:43:00,57.2,27.6,30.18,WSW,237,9.0,15.0,32,0.00,,,0.00,Wunderground v.1.15,2013-10-06 17:43:00,
2013-10-06 11:44:00,57.3,28.4,30.18,SSW,204,8.0,15.0,33,0.00,,,0.00,Wunderground v.1.15,2013-10-06 17:44:00,
2013-10-06 11:45:00,57.4,27.0,30.17,WSW,252,8.0,15.0,31,0.00,,,0.00,Wunderground v.1.15,2013-10-06 17:45:00,
2013-10-06 11:49:00,57.4,27.0,30.17,SW,224,9.0,16.0,31,0.00,,,0.00,Wunderground v.1.15,2013-10-06 17:49:00,
2013-10-06 11:54:00,57.5,27.1,30.18,WSW,239,9.0,9.0,31,0.00,,,0.00,Wunderground v.1.15,2013-10-06 17:54:00,
2013-10-06 11:55:00,57.6,26.4,30.18,West,277,9.0,10.0,30,0.00,,,0.00,Wunderground v.1.15,2013-10-06 17:55:00,
2013-10-06 11:59:00,58.0,27.5,30.18,North,1,8.0,10.0,31,0.00,,,0.00,Wunderground v.1.15,2013-10-06 17:59:00,
2013-10-06 12:00:00,58.2,27.7,30.18,WSW,250,8.0,8.0,31,0.00,,,0.00,Wunderground v.1.15,2013-10-06 18:00:00,
2013-10-06 12:01:00,58.2,28.5,30.18,WNW,297,7.0,8.0,32,0.00,,,0.00,Wunderground v.1.15,2013-10-06 18:01:00,
2013-10-06 12:06:00,58.1,27.6,30.17,West,266,7.0,12.0,31,0.00,,,0.00,Wunderground v.1.15,2013-10-06 18:06:00,
2013-10-06 12:07:00,58.0,27.5,30.17,WSW,255,8.0,12.0,31,0.00,,,0.00,Wunderground v.1.15,2013-10-06 18:07:00,
2013-10-06 12:09:00,57.9,26.6,30.17,NW,311,9.0,12.0,30,0.00,,,0.00,Wunderground v.1.15,2013-10-06 18:09:00,
2013-10-06 12:10:00,57.9,27.4,30.17,WSW,250,9.0,10.0,31,0.00,,,0.00,Wunderground v.1.15,2013-10-06 18:10:00,
2013-10-06 12:11:00,57.9,27.4,30.18,West,266,9.0,10.0,31,0.00,,,0.00,Wunderground v.1.15,2013-10-06 18:11:00,
2013-10-06 12:12:00,57.9,27.4,30.17,WNW,295,10.0,10.0,31,0.00,,,0.00,Wunderground v.1.15,2013-10-06 18:12:00,
2013-10-06 12:13:00,57.9,27.4,30.17,West,276,10.0,13.0,31,0.00,,,0.00,Wunderground v.1.15,2013-10-06 18:13:00,
2013-10-06 12:16:00,58.1,26.8,30.17,WNW,288,9.0,13.0,30,0.00,,,0.00,Wunderground v.1.15,2013-10-06 18:16:00,
2013-10-06 12:18:00,58.2,26.9,30.17,NW,319,9.0,13.0,30,0.00,,,0.00,Wunderground v.1.15,2013-10-06 18:18:00,
2013-10-06 12:19:00,58.2,27.7,30.17,West,270,9.0,13.0,31,0.00,,,0.00,Wunderground v.1.15,2013-10-06 18:19:00,
2013-10-06 12:24:00,58.3,28.5,30.17,WSW,255,9.0,12.0,32,0.00,,,0.00,Wunderground v.1.15,2013-10-06 18:24:00,
2013-10-06 12:25:00,58.5,28.7,30.17,West,267,8.0,12.0,32,0.00,,,0.00,Wunderground v.1.15,2013-10-06 18:25:00,
2013-10-06 12:26:00,58.6,28.0,30.17,WNW,295,8.0,12.0,31,0.00,,,0.00,Wunderground v.1.15,2013-10-06 18:26:00,
2013-10-06 12:31:00,58.1,26.8,30.17,SW,214,9.0,15.0,30,0.00,,,0.00,Wunderground v.1.15,2013-10-06 18:31:00,
2013-10-06 12:32:00,58.1,27.6,30.17,SW,236,9.0,15.0,31,0.00,,,0.00,Wunderground v.1.15,2013-10-06 18:32:00,
2013-10-06 12:33:00,58.2,27.7,30.17,SW,225,9.0,15.0,31,0.00,,,0.00,Wunderground v.1.15,2013-10-06 18:33:00,
2013-10-06 12:38:00,58.3,27.0,30.17,West,264,9.0,15.0,30,0.00,,,0.00,Wunderground v.1.15,2013-10-06 18:38:00,
2013-10-06 12:39:00,58.3,27.8,30.17,NW,312,9.0,15.0,31,0.00,,,0.00,Wunderground v.1.15,2013-10-06 18:39:00,
2013-10-06 12:40:00,58.3,27.8,30.17,West,266,9.0,14.0,31,0.00,,,0.00,Wunderground v.1.15,2013-10-06 18:40:00,
2013-10-06 12:42:00,58.4,27.9,30.17,WSW,239,8.0,14.0,31,0.00,,,0.00,Wunderground v.1.15,2013-10-06 18:42:00,
2013-10-06 12:43:00,58.4,27.1,30.16,WSW,256,9.0,14.0,30,0.00,,,0.00,Wunderground v.1.15,2013-10-06 18:43:00,
2013-10-06 12:44:00,58.4,27.1,30.17,West,280,9.0,14.0,30,0.00,,,0.00,Wunderground v.1.15,2013-10-06 18:44:00,
2013-10-06 12:47:00,58.4,27.1,30.17,SW,228,9.0,14.0,30,0.00,,,0.00,Wunderground v.1.15,2013-10-06 18:47:00,
2013-10-06 12:49:00,58.7,28.1,30.16,West,276,9.0,14.0,31,0.00,,,0.00,Wunderground v.1.15,2013-10-06 18:49:00,
2013-10-06 12:51:00,59.0,28.4,30.16,WNW,300,8.0,9.0,31,0.00,,,0.00,Wunderground v.1.15,2013-10-06 18:51:00,
2013-10-06 12:53:00,59.1,26.8,30.16,WSW,253,8.0,12.0,29,0.00,,,0.00,Wunderground v.1.15,2013-10-06 18:53:00,
2013-10-06 12:54:00,59.2,27.7,30.16,SW,234,8.0,12.0,30,0.00,,,0.00,Wunderground v.1.15,2013-10-06 18:54:00,
2013-10-06 12:56:00,59.2,26.9,30.16,West,267,7.0,12.0,29,0.00,,,0.00,Wunderground v.1.15,2013-10-06 18:56:00,
2013-10-06 13:00:00,59.5,28.0,30.16,WSW,249,7.0,7.0,30,0.00,,,0.00,Wunderground v.1.15,2013-10-06 19:00:00,
2013-10-06 13:01:00,59.5,27.2,30.16,West,273,7.0,7.0,29,0.00,,,0.00,Wunderground v.1.15,2013-10-06 19:01:00,
2013-10-06 13:03:00,59.5,26.3,30.16,WNW,302,7.0,10.0,28,0.00,,,0.00,Wunderground v.1.15,2013-10-06 19:03:00,
2013-10-06 13:06:00,59.3,27.0,30.15,WSW,239,8.0,11.0,29,0.00,,,0.00,Wunderground v.1.15,2013-10-06 19:06:00,
2013-10-06 13:07:00,59.3,27.8,30.15,WSW,239,8.0,14.0,30,0.00,,,0.00,Wunderground v.1.15,2013-10-06 19:07:00,
2013-10-06 13:08:00,59.3,27.0,30.15,West,260,8.0,14.0,29,0.00,,,0.00,Wunderground v.1.15,2013-10-06 19:08:00,
2013-10-06 13:12:00,59.5,28.0,30.15,WSW,255,8.0,9.0,30,0.00,,,0.00,Wunderground v.1.15,2013-10-06 19:12:00,
2013-10-06 13:13:00,59.6,27.3,30.15,SW,218,8.0,11.0,29,0.00,,,0.00,Wunderground v.1.15,2013-10-06 19:13:00,
2013-10-06 13:14:00,59.6,26.4,30.15,WSW,246,9.0,11.0,28,0.00,,,0.00,Wunderground v.1.15,2013-10-06 19:14:00,
2013-10-06 13:18:00,59.8,27.4,30.15,SW,225,9.0,11.0,29,0.00,,,0.00,Wunderground v.1.15,2013-10-06 19:18:00,
2013-10-06 13:19:00,59.8,27.4,30.15,WSW,248,8.0,11.0,29,0.00,,,0.00,Wunderground v.1.15,2013-10-06 19:19:00,
2013-10-06 13:21:00,59.8,27.4,30.15,WSW,257,8.0,12.0,29,0.00,,,0.00,Wunderground v.1.15,2013-10-06 19:21:00,
2013-10-06 13:22:00,59.8,28.3,30.15,WSW,245,8.0,12.0,30,0.00,,,0.00,Wunderground v.1.15,2013-10-06 19:22:00,
2013-10-06 13:24:00,59.9,28.4,30.14,SW,229,8.0,12.0,30,0.00,,,0.00,Wunderground v.1.15,2013-10-06 19:24:00,
2013-10-06 13:25:00,60.0,26.8,30.14,SW,217,8.0,12.0,28,0.00,,,0.00,Wunderground v.1.15,2013-10-06 19:25:00,
2013-10-06 13:28:00,60.1,27.7,30.14,SW,221,7.0,12.0,29,0.00,,,0.00,Wunderground v.1.15,2013-10-06 19:28:00,
2013-10-06 13:30:00,60.2,27.8,30.14,SW,221,8.0,8.0,29,0.00,,,0.00,Wunderground v.1.15,2013-10-06 19:30:00,
2013-10-06 13:31:00,60.3,27.9,30.14,WSW,238,7.0,9.0,29,0.00,,,0.00,Wunderground v.1.15,2013-10-06 19:31:00,
2013-10-06 13:34:00,60.5,27.2,30.14,West,271,8.0,10.0,28,0.00,,,0.00,Wunderground v.1.15,2013-10-06 19:34:00,
2013-10-06 13:36:00,60.4,27.1,30.14,SW,235,8.0,10.0,28,0.00,,,0.00,Wunderground v.1.15,2013-10-06 19:36:00,
2013-10-06 13:39:00,60.6,28.1,30.14,West,276,7.0,10.0,29,0.00,,,0.00,Wunderground v.1.15,2013-10-06 19:39:00,
2013-10-06 13:40:00,60.7,27.4,30.14,West,278,7.0,8.0,28,0.00,,,0.00,Wunderground v.1.15,2013-10-06 19:40:00,
2013-10-06 13:42:00,60.4,27.1,30.14,WSW,240,7.0,11.0,28,0.00,,,0.00,Wunderground v.1.15,2013-10-06 19:42:00,
2013-10-06 13:45:00,60.3,27.9,30.13,SSE,165,7.0,11.0,29,0.00,,,0.00,Wunderground v.1.15,2013-10-06 19:45:00,
2013-10-06 13:46:00,60.3,27.9,30.13,SW,229,7.0,11.0,29,0.00,,,0.00,Wunderground v.1.15,2013-10-06 19:46:00,
2013-10-06 13:47:00,60.5,28.1,30.13,WSW,244,7.0,11.0,29,0.00,,,0.00,Wunderground v.1.15,2013-10-06 19:47:00,
2013-10-06 13:52:00,60.4,27.1,30.13,SSW,212,8.0,9.0,28,0.00,,,0.00,Wunderground v.1.15,2013-10-06 19:52:00,
2013-10-06 13:55:00,60.6,27.3,30.13,West,276,7.0,9.0,28,0.00,,,0.00,Wunderground v.1.15,2013-10-06 19:55:00,
2013-10-06 13:56:00,60.7,28.2,30.13,WSW,252,7.0,9.0,29,0.00,,,0.00,Wunderground v.1.15,2013-10-06 19:56:00,
2013-10-06 13:59:00,60.7,27.4,30.12,WSW,249,7.0,11.0,28,0.00,,,0.00,Wunderground v.1.15,2013-10-06 19:59:00,
2013-10-06 14:00:00,60.7,27.4,30.12,SSW,194,7.0,7.0,28,0.00,,,0.00,Wunderground v.1.15,2013-10-06 20:00:00,
2013-10-06 14:02:00,60.7,26.5,30.12,SW,229,7.0,9.0,27,0.00,,,0.00,Wunderground v.1.15,2013-10-06 20:02:00,
2013-10-06 14:05:00,60.8,26.6,30.12,SSW,194,7.0,9.0,27,0.00,,,0.00,Wunderground v.1.15,2013-10-06 20:05:00,
2013-10-06 14:06:00,60.9,26.7,30.12,SW,233,7.0,9.0,27,0.00,,,0.00,Wunderground v.1.15,2013-10-06 20:06:00,
2013-10-06 14:07:00,60.9,27.5,30.12,SW,221,7.0,9.0,28,0.00,,,0.00,Wunderground v.1.15,2013-10-06 20:07:00,
2013-10-06 14:08:00,61.0,27.6,30.12,West,271,7.0,9.0,28,0.00,,,0.00,Wunderground v.1.15,2013-10-06 20:08:00,
2013-10-06 14:10:00,61.2,26.9,30.12,WNW,283,7.0,7.0,27,0.00,,,0.00,Wunderground v.1.15,2013-10-06 20:10:00,
2013-10-06 14:11:00,61.3,27.0,30.12,SW,221,7.0,7.0,27,0.00,,,0.00,Wunderground v.1.15,2013-10-06 20:11:00,
2013-10-06 14:13:00,61.3,27.0,30.12,West,274,7.0,7.0,27,0.00,,,0.00,Wunderground v.1.15,2013-10-06 20:13:00,
2013-10-06 14:15:00,61.2,26.0,30.12,West,262,7.0,8.0,26,0.00,,,0.00,Wunderground v.1.15,2013-10-06 20:15:00,
2013-10-06 14:17:00,61.4,27.1,30.12,SW,233,7.0,9.0,27,0.00,,,0.00,Wunderground v.1.15,2013-10-06 20:17:00,
2013-10-06 14:18:00,61.3,26.1,30.12,West,263,7.0,9.0,26,0.00,,,0.00,Wunderground v.1.15,2013-10-06 20:18:00,
2013-10-06 14:21:00,61.3,26.1,30.12,SW,231,7.0,7.0,26,0.00,,,0.00,Wunderground v.1.15,2013-10-06 20:21:00,
2013-10-06 14:22:00,61.4,27.1,30.12,SW,217,6.0,7.0,27,0.00,,,0.00,Wunderground v.1.15,2013-10-06 20:22:00,
2013-10-06 14:23:00,61.6,26.3,30.12,WSW,242,6.0,7.0,26,0.00,,,0.00,Wunderground v.1.15,2013-10-06 20:23:00,
2013-10-06 14:26:00,61.7,26.4,30.12,WSW,257,6.0,7.0,26,0.00,,,0.00,Wunderground v.1.15,2013-10-06 20:26:00,
2013-10-06 14:27:00,61.7,26.4,30.12,NW,308,7.0,7.0,26,0.00,,,0.00,Wunderground v.1.15,2013-10-06 20:27:00,
2013-10-06 14:32:00,61.6,26.3,30.12,West,275,7.0,10.0,26,0.00,,,0.00,Wunderground v.1.15,2013-10-06 20:32:00,
2013-10-06 14:33:00,61.6,27.3,30.12,WNW,286,7.0,10.0,27,0.00,,,0.00,Wunderground v.1.15,2013-10-06 20:33:00,
2013-10-06 14:34:00,61.7,27.3,30.12,WNW,288,8.0,14.0,27,0.00,,,0.00,Wunderground v.1.15,2013-10-06 20:34:00,
2013-10-06 14:37:00,61.6,28.1,30.12,WSW,239,8.0,14.0,28,0.00,,,0.00,Wunderground v.1.15,2013-10-06 20:37:00,
2013-10-06 14:39:00,61.6,27.3,30.12,WNW,290,8.0,14.0,27,0.00,,,0.00,Wunderground v.1.15,2013-10-06 20:39:00,
2013-10-06 14:43:00,61.5,27.2,30.12,WSW,239,8.0,9.0,27,0.00,,,0.00,Wunderground v.1.15,2013-10-06 20:43:00,
2013-10-06 14:46:00,61.5,28.1,30.12,West,281,7.0,10.0,28,0.00,,,0.00,Wunderground v.1.15,2013-10-06 20:46:00,
2013-10-06 14:47:00,61.5,27.2,30.12,West,269,7.0,10.0,27,0.00,,,0.00,Wunderground v.1.15,2013-10-06 20:47:00,
2013-10-06 14:48:00,61.5,27.2,30.12,West,263,7.0,10.0,27,0.00,,,0.00,Wunderground v.1.15,2013-10-06 20:48:00,
2013-10-06 14:49:00,61.5,28.1,30.12,WSW,255,7.0,10.0,28,0.00,,,0.00,Wunderground v.1.15,2013-10-06 20:49:00,
2013-10-06 14:53:00,61.7,27.3,30.12,WNW,294,7.0,9.0,27,0.00,,,0.00,Wunderground v.1.15,2013-10-06 20:53:00,
2013-10-06 14:54:00,61.7,27.3,30.12,West,274,7.0,9.0,27,0.00,,,0.00,Wunderground v.1.15,2013-10-06 20:54:00,
2013-10-06 14:55:00,61.6,27.3,30.12,SSW,200,7.0,9.0,27,0.00,,,0.00,Wunderground v.1.15,2013-10-06 20:55:00,
2013-10-06 14:57:00,61.8,28.3,30.12,SW,215,7.0,9.0,28,0.00,,,0.00,Wunderground v.1.15,2013-10-06 20:57:00,
2013-10-06 14:59:00,61.5,28.1,30.12,West,262,8.0,13.0,28,0.00,,,0.00,Wunderground v.1.15,2013-10-06 20:59:00,
2013-10-06 15:00:00,61.5,28.9,30.12,West,264,8.0,8.0,29,0.00,,,0.00,Wunderground v.1.15,2013-10-06 21:00:00,
2013-10-06 15:01:00,61.5,28.1,30.12,SW,226,8.0,8.0,28,0.00,,,0.00,Wunderground v.1.15,2013-10-06 21:01:00,
2013-10-06 15:03:00,61.8,29.2,30.12,NW,310,6.0,8.0,29,0.00,,,0.00,Wunderground v.1.15,2013-10-06 21:03:00,
2013-10-06 15:06:00,62.4,28.8,30.12,WNW,290,5.0,8.0,28,0.00,,,0.00,Wunderground v.1.15,2013-10-06 21:06:00,
2013-10-06 15:08:00,62.6,30.7,30.12,SW,218,4.0,8.0,30,0.00,,,0.00,Wunderground v.1.15,2013-10-06 21:08:00,
2013-10-06 15:09:00,62.7,29.1,30.12,SSE,153,4.0,8.0,28,0.00,,,0.00,Wunderground v.1.15,2013-10-06 21:09:00,
2013-10-06 15:10:00,62.8,29.2,30.11,SW,231,3.0,7.0,28,0.00,,,0.00,Wunderground v.1.15,2013-10-06 21:10:00,
2013-10-06 15:11:00,62.9,30.1,30.11,WSW,252,3.0,11.0,29,0.00,,,0.00,Wunderground v.1.15,2013-10-06 21:11:00,
2013-10-06 15:12:00,62.8,29.2,30.11,West,277,4.0,15.0,28,0.00,,,0.00,Wunderground v.1.15,2013-10-06 21:12:00,
2013-10-06 15:13:00,62.5,28.0,30.11,West,281,5.0,15.0,27,0.00,,,0.00,Wunderground v.1.15,2013-10-06 21:13:00,
2013-10-06 15:14:00,62.2,27.8,30.12,West,278,6.0,15.0,27,0.00,,,0.00,Wunderground v.1.15,2013-10-06 21:14:00,
2013-10-06 15:16:00,61.7,28.2,30.12,West,271,7.0,15.0,28,0.00,,,0.00,Wunderground v.1.15,2013-10-06 21:16:00,
2013-10-06 15:17:00,61.5,28.1,30.12,NW,316,7.0,15.0,28,0.00,,,0.00,Wunderground v.1.15,2013-10-06 21:17:00,
2013-10-06 15:18:00,61.4,28.0,30.12,WSW,242,7.0,15.0,28,0.00,,,0.00,Wunderground v.1.15,2013-10-06 21:18:00,
2013-10-06 15:19:00,61.4,28.0,30.12,West,273,8.0,15.0,28,0.00,,,0.00,Wunderground v.1.15,2013-10-06 21:19:00,
2013-10-06 15:20:00,61.3,27.0,30.12,East,86,8.0,8.0,27,0.00,,,0.00,Wunderground v.1.15,2013-10-06 21:20:00,
2013-10-06 15:21:00,61.4,29.7,30.12,East,82,7.0,8.0,30,0.00,,,0.00,Wunderground v.1.15,2013-10-06 21:21:00,
2013-10-06 15:23:00,62.3,30.4,30.12,NE,39,6.0,8.0,30,0.00,,,0.00,Wunderground v.1.15,2013-10-06 21:23:00,
2013-10-06 15:27:00,63.3,31.3,30.12,East,93,4.0,8.0,30,0.00,,,0.00,Wunderground v.1.15,2013-10-06 21:27:00,
2013-10-06 15:28:00,63.2,31.2,30.12,NE,36,3.0,8.0,30,0.00,,,0.00,Wunderground v.1.15,2013-10-06 21:28:00,
2013-10-06 15:29:00,63.2,31.2,30.12,NW,305,3.0,8.0,30,0.00,,,0.00,Wunderground v.1.15,2013-10-06 21:29:00,
2013-10-06 15:30:00,63.0,31.9,30.12,NNE,28,3.0,3.0,31,0.00,,,0.00,Wunderground v.1.15,2013-10-06 21:30:00,
2013-10-06 15:31:00,63.0,31.9,30.12,NE,50,3.0,3.0,31,0.00,,,0.00,Wunderground v.1.15,2013-10-06 21:31:00,
2013-10-06 15:32:00,62.9,32.6,30.12,East,98,3.0,5.0,32,0.00,,,0.00,Wunderground v.1.15,2013-10-06 21:32:00,
2013-10-06 15:34:00,62.5,30.6,30.12,East,96,3.0,7.0,30,0.00,,,0.00,Wunderground v.1.15,2013-10-06 21:34:00,
2013-10-06 15:35:00,62.4,31.3,30.12,ENE,73,3.0,7.0,31,0.00,,,0.00,Wunderground v.1.15,2013-10-06 21:35:00,
2013-10-06 15:36:00,62.2,31.2,30.12,NE,36,4.0,7.0,31,0.00,,,0.00,Wunderground v.1.15,2013-10-06 21:36:00,
2013-10-06 15:39:00,62.3,32.0,30.11,East,94,3.0,7.0,32,0.00,,,0.00,Wunderground v.1.15,2013-10-06 21:39:00,
2013-10-06 15:40:00,62.5,32.2,30.12,East,98,3.0,3.0,32,0.00,,,0.00,Wunderground v.1.15,2013-10-06 21:40:00,
2013-10-06 15:43:00,63.0,31.9,30.11,ESE,113,3.0,6.0,31,0.00,,,0.00,Wunderground v.1.15,2013-10-06 21:43:00,
2013-10-06 15:44:00,63.0,32.7,30.11,East,89,3.0,6.0,32,0.00,,,0.00,Wunderground v.1.15,2013-10-06 21:44:00,
2013-10-06 15:45:00,63.0,32.7,30.11,East,85,3.0,6.0,32,0.00,,,0.00,Wunderground v.1.15,2013-10-06 21:45:00,
2013-10-06 15:46:00,63.0,31.9,30.11,SE,124,2.0,6.0,31,0.00,,,0.00,Wunderground v.1.15,2013-10-06 21:46:00,
2013-10-06 15:48:00,63.2,32.8,30.11,East,91,2.0,6.0,32,0.00,,,0.00,Wunderground v.1.15,2013-10-06 21:48:00,
2013-10-06 15:50:00,63.1,32.7,30.11,ENE,71,3.0,6.0,32,0.00,,,0.00,Wunderground v.1.15,2013-10-06 21:50:00,
2013-10-06 15:51:00,63.0,32.7,30.11,East,86,3.0,6.0,32,0.00,,,0.00,Wunderground v.1.15,2013-10-06 21:51:00,
2013-10-06 15:52:00,62.9,33.3,30.11,SE,137,3.0,6.0,33,0.00,,,0.00,Wunderground v.1.15,2013-10-06 21:52:00,
2013-10-06 15:53:00,62.9,33.3,30.11,ESE,120,3.0,6.0,33,0.00,,,0.00,Wunderground v.1.15,2013-10-06 21:53:00,
2013-10-06 15:56:00,63.0,33.4,30.11,SE,142,3.0,6.0,33,0.00,,,0.00,Wunderground v.1.15,2013-10-06 21:56:00,
2013-10-06 15:58:00,63.1,33.5,30.11,NW,315,3.0,6.0,33,0.00,,,0.00,Wunderground v.1.15,2013-10-06 21:58:00,
2013-10-06 16:01:00,63.2,32.0,30.11,ESE,109,3.0,5.0,31,0.00,,,0.00,Wunderground v.1.15,2013-10-06 22:01:00,
2013-10-06 16:02:00,63.1,31.9,30.11,SE,134,3.0,5.0,31,0.00,,,0.00,Wunderground v.1.15,2013-10-06 22:02:00,
2013-10-06 16:06:00,63.1,31.1,30.11,ESE,122,3.0,5.0,30,0.00,,,0.00,Wunderground v.1.15,2013-10-06 22:06:00,
2013-10-06 16:10:00,63.3,31.3,30.11,SW,218,2.0,2.0,30,0.00,,,0.00,Wunderground v.1.15,2013-10-06 22:10:00,
2013-10-06 16:11:00,63.3,30.5,30.11,WSW,255,2.0,2.0,29,0.00,,,0.00,Wunderground v.1.15,2013-10-06 22:11:00,
2013-10-06 16:12:00,63.2,30.4,30.11,East,82,2.0,2.0,29,0.00,,,0.00,Wunderground v.1.15,2013-10-06 22:12:00,
2013-10-06 16:13:00,63.2,30.4,30.11,SE,134,2.0,2.0,29,0.00,,,0.00,Wunderground v.1.15,2013-10-06 22:13:00,
2013-10-06 16:16:00,63.2,30.4,30.10,East,89,2.0,2.0,29,0.00,,,0.00,Wunderground v.1.15,2013-10-06 22:16:00,
2013-10-06 16:17:00,63.2,31.2,30.11,ESE,116,2.0,3.0,30,0.00,,,0.00,Wunderground v.1.15,2013-10-06 22:17:00,
2013-10-06 16:20:00,63.1,30.3,30.10,East,92,2.0,2.0,29,0.00,,,0.00,Wunderground v.1.15,2013-10-06 22:20:00,
2013-10-06 16:22:00,63.3,30.5,30.10,SW,232,2.0,2.0,29,0.00,,,0.00,Wunderground v.1.15,2013-10-06 22:22:00,
2013-10-06 16:23:00,63.5,30.6,30.10,NNE,33,2.0,2.0,29,0.00,,,0.00,Wunderground v.1.15,2013-10-06 22:23:00,
2013-10-06 16:26:00,63.9,30.1,30.10,West,274,1.0,7.0,28,0.00,,,0.00,Wunderground v.1.15,2013-10-06 22:26:00,
2013-10-06 16:29:00,63.3,28.7,30.10,SW,215,2.0,7.0,27,0.00,,,0.00,Wunderground v.1.15,2013-10-06 22:29:00,
2013-10-06 16:31:00,63.3,30.5,30.10,South,181,3.0,4.0,29,0.00,,,0.00,Wunderground v.1.15,2013-10-06 22:31:00,
2013-10-06 16:32:00,63.4,29.7,30.10,SW,225,3.0,4.0,28,0.00,,,0.00,Wunderground v.1.15,2013-10-06 22:32:00,
2013-10-06 16:33:00,63.5,30.6,30.10,SSE,162,3.0,4.0,29,0.00,,,0.00,Wunderground v.1.15,2013-10-06 22:33:00,
2013-10-06 16:36:00,63.9,30.1,30.10,West,267,3.0,6.0,28,0.00,,,0.00,Wunderground v.1.15,2013-10-06 22:36:00,
2013-10-06 16:39:00,63.5,29.8,30.10,West,270,3.0,6.0,28,0.00,,,0.00,Wunderground v.1.15,2013-10-06 22:39:00,
2013-10-06 16:41:00,63.4,29.7,30.10,WSW,245,3.0,3.0,28,0.00,,,0.00,Wunderground v.1.15,2013-10-06 22:41:00,
2013-10-06 16:42:00,63.4,28.8,30.10,West,273,3.0,3.0,27,0.00,,,0.00,Wunderground v.1.15,2013-10-06 22:42:00,
2013-10-06 16:47:00,63.5,29.8,30.10,SSW,205,3.0,5.0,28,0.00,,,0.00,Wunderground v.1.15,2013-10-06 22:47:00,
2013-10-06 16:49:00,63.3,29.6,30.10,West,269,3.0,5.0,28,0.00,,,0.00,Wunderground v.1.15,2013-10-06 22:49:00,
2013-10-06 16:50:00,63.2,29.5,30.10,West,259,3.0,5.0,28,0.00,,,0.00,Wunderground v.1.15,2013-10-06 22:50:00,
2013-10-06 16:53:00,62.8,29.2,30.10,West,271,4.0,7.0,28,0.00,,,0.00,Wunderground v.1.15,2013-10-06 22:53:00,
2013-10-06 16:54:00,62.6,29.0,30.10,WNW,302,4.0,7.0,28,0.00,,,0.00,Wunderground v.1.15,2013-10-06 22:54:00,
2013-10-06 16:55:00,62.4,29.7,30.10,SSW,203,4.0,7.0,29,0.00,,,0.00,Wunderground v.1.15,2013-10-06 22:55:00,
2013-10-06 16:58:00,62.5,29.8,30.10,SW,217,4.0,7.0,29,0.00,,,0.00,Wunderground v.1.15,2013-10-06 22:58:00,
2013-10-06 16:59:00,62.5,28.9,30.10,SSW,208,4.0,7.0,28,0.00,,,0.00,Wunderground v.1.15,2013-10-06 22:59:00,
2013-10-06 17:00:00,62.5,29.8,30.10,WSW,257,4.0,4.0,29,0.00,,,0.00,Wunderground v.1.15,2013-10-06 23:00:00,
2013-10-06 17:01:00,62.5,29.8,30.10,SW,229,4.0,4.0,29,0.00,,,0.00,Wunderground v.1.15,2013-10-06 23:01:00,
2013-10-06 17:02:00,62.5,29.8,30.10,ESE,118,4.0,5.0,29,0.00,,,0.00,Wunderground v.1.15,2013-10-06 23:02:00,
2013-10-06 17:03:00,62.5,29.8,30.10,South,173,4.0,5.0,29,0.00,,,0.00,Wunderground v.1.15,2013-10-06 23:03:00,
2013-10-06 17:06:00,62.4,28.8,30.10,SW,217,5.0,6.0,28,0.00,,,0.00,Wunderground v.1.15,2013-10-06 23:06:00,
2013-10-06 17:10:00,62.3,29.6,30.10,SW,228,5.0,5.0,29,0.00,,,0.00,Wunderground v.1.15,2013-10-06 23:10:00,
2013-10-06 17:12:00,62.3,29.6,30.10,SSW,206,5.0,5.0,29,0.00,,,0.00,Wunderground v.1.15,2013-10-06 23:12:00,
2013-10-06 17:15:00,62.1,29.4,30.10,SW,233,5.0,13.0,29,0.00,,,0.00,Wunderground v.1.15,2013-10-06 23:15:00,
2013-10-06 17:16:00,61.9,29.3,30.10,SW,229,5.0,13.0,29,0.00,,,0.00,Wunderground v.1.15,2013-10-06 23:16:00,
2013-10-06 17:18:00,61.6,29.0,30.10,SSW,208,5.0,13.0,29,0.00,,,0.00,Wunderground v.1.15,2013-10-06 23:18:00,
2013-10-06 17:19:00,61.5,28.1,30.10,SSW,210,5.0,13.0,28,0.00,,,0.00,Wunderground v.1.15,2013-10-06 23:19:00,
2013-10-06 17:21:00,61.4,28.8,30.10,SW,217,5.0,5.0,29,0.00,,,0.00,Wunderground v.1.15,2013-10-06 23:21:00,
2013-10-06 17:24:00,61.1,28.6,30.10,WSW,238,6.0,6.0,29,0.00,,,0.00,Wunderground v.1.15,2013-10-06 23:24:00,
2013-10-06 17:25:00,61.1,28.6,30.10,WSW,255,5.0,6.0,29,0.00,,,0.00,Wunderground v.1.15,2013-10-06 23:25:00,
2013-10-06 17:27:00,61.2,29.5,30.10,SSW,212,5.0,6.0,30,0.00,,,0.00,Wunderground v.1.15,2013-10-06 23:27:00,
2013-10-06 17:28:00,61.2,29.5,30.10,SSW,203,5.0,6.0,30,0.00,,,0.00,Wunderground v.1.15,2013-10-06 23:28:00,
2013-10-06 17:29:00,61.3,29.6,30.10,SSW,211,5.0,6.0,30,0.00,,,0.00,Wunderground v.1.15,2013-10-06 23:29:00,
2013-10-06 17:33:00,61.6,29.8,30.10,SSW,208,4.0,5.0,30,0.00,,,0.00,Wunderground v.1.15,2013-10-06 23:33:00,
2013-10-06 17:34:00,61.6,28.1,30.10,WSW,243,4.0,8.0,28,0.00,,,0.00,Wunderground v.1.15,2013-10-06 23:34:00,
2013-10-06 17:36:00,61.4,28.8,30.10,SE,135,4.0,8.0,29,0.00,,,0.00,Wunderground v.1.15,2013-10-06 23:36:00,
2013-10-06 17:39:00,61.2,27.8,30.10,SSW,212,5.0,8.0,28,0.00,,,0.00,Wunderground v.1.15,2013-10-06 23:39:00,
2013-10-06 17:40:00,61.2,28.7,30.10,SSW,201,5.0,5.0,29,0.00,,,0.00,Wunderground v.1.15,2013-10-06 23:40:00,
2013-10-06 17:41:00,61.1,28.6,30.10,SW,214,5.0,9.0,29,0.00,,,0.00,Wunderground v.1.15,2013-10-06 23:41:00,
2013-10-06 17:45:00,61.0,29.3,30.10,SW,233,5.0,9.0,30,0.00,,,0.00,Wunderground v.1.15,2013-10-06 23:45:00,
2013-10-06 17:46:00,61.0,28.5,30.10,West,281,5.0,9.0,29,0.00,,,0.00,Wunderground v.1.15,2013-10-06 23:46:00,
2013-10-06 17:47:00,60.9,28.4,30.10,South,191,5.0,9.0,29,0.00,,,0.00,Wunderground v.1.15,2013-10-06 23:47:00,
2013-10-06 17:49:00,60.9,28.4,30.10,SW,232,4.0,9.0,29,0.00,,,0.00,Wunderground v.1.15,2013-10-06 23:49:00,
2013-10-06 17:50:00,60.9,28.4,30.10,WNW,287,4.0,4.0,29,0.00,,,0.00,Wunderground v.1.15,2013-10-06 23:50:00,
2013-10-06 17:52:00,60.9,28.4,30.10,WSW,245,3.0,4.0,29,0.00,,,0.00,Wunderground v.1.15,2013-10-06 23:52:00,
2013-10-06 17:54:00,60.9,28.4,30.10,West,274,3.0,4.0,29,0.00,,,0.00,Wunderground v.1.15,2013-10-06 23:54:00,
2013-10-06 17:55:00,60.8,29.1,30.10,WNW,295,3.0,5.0,30,0.00,,,0.00,Wunderground v.1.15,2013-10-06 23:55:00,
2013-10-06 17:57:00,60.7,28.2,30.10,SW,232,3.0,5.0,29,0.00,,,0.00,Wunderground v.1.15,2013-10-06 23:57:00,
2013-10-06 17:58:00,60.7,28.2,30.10,WSW,252,3.0,6.0,29,0.00,,,0.00,Wunderground v.1.15,2013-10-06 23:58:00,
2013-10-06 18:00:00,60.4,28.8,30.10,SW,233,3.0,6.0,30,0.00,,,0.00,Wunderground v.1.15,2013-10-07 00:00:00,
2013-10-06 18:02:00,60.1,28.5,30.10,WSW,245,4.0,6.0,30,0.00,,,0.00,Wunderground v.1.15,2013-10-07 00:02:00,
2013-10-06 18:04:00,60.0,28.4,30.10,SW,221,4.0,6.0,30,0.00,,,0.00,Wunderground v.1.15,2013-10-07 00:04:00,
2013-10-06 18:05:00,59.9,28.4,30.10,WSW,252,4.0,6.0,30,0.00,,,0.00,Wunderground v.1.15,2013-10-07 00:05:00,
2013-10-06 18:08:00,59.3,28.6,30.10,WNW,284,4.0,6.0,31,0.00,,,0.00,Wunderground v.1.15,2013-10-07 00:08:00,
2013-10-06 18:10:00,58.7,29.6,30.10,West,278,4.0,4.0,33,0.00,,,0.00,Wunderground v.1.15,2013-10-07 00:10:00,
2013-10-06 18:11:00,58.4,29.4,30.10,WNW,297,4.0,4.0,33,0.00,,,0.00,Wunderground v.1.15,2013-10-07 00:11:00,
2013-10-06 18:12:00,58.2,29.9,30.10,WNW,295,4.0,4.0,34,0.00,,,0.00,Wunderground v.1.15,2013-10-07 00:12:00,
2013-10-06 18:16:00,56.9,31.5,30.10,West,277,4.0,4.0,38,0.00,,,0.00,Wunderground v.1.15,2013-10-07 00:16:00,
2013-10-06 18:19:00,56.1,31.5,30.10,WNW,300,3.0,4.0,39,0.00,,,0.00,Wunderground v.1.15,2013-10-07 00:19:00,
2013-10-06 18:20:00,55.8,31.8,30.10,WNW,302,3.0,3.0,40,0.00,,,0.00,Wunderground v.1.15,2013-10-07 00:20:00,
2013-10-06 18:21:00,55.5,31.5,30.10,WNW,300,3.0,3.0,40,0.00,,,0.00,Wunderground v.1.15,2013-10-07 00:21:00,
2013-10-06 18:22:00,55.3,32.0,30.10,NW,304,3.0,4.0,41,0.00,,,0.00,Wunderground v.1.15,2013-10-07 00:22:00,
2013-10-06 18:24:00,54.9,31.6,30.11,NW,309,3.0,6.0,41,0.00,,,0.00,Wunderground v.1.15,2013-10-07 00:24:00,
2013-10-06 18:25:00,54.7,32.0,30.11,NW,307,3.0,6.0,42,0.00,,,0.00,Wunderground v.1.15,2013-10-07 00:25:00,
2013-10-06 18:29:00,54.3,31.7,30.11,WNW,302,3.0,6.0,42,0.00,,,0.00,Wunderground v.1.15,2013-10-07 00:29:00,
2013-10-06 18:30:00,54.1,32.1,30.11,NNW,339,3.0,3.0,43,0.00,,,0.00,Wunderground v.1.15,2013-10-07 00:30:00,
2013-10-06 18:31:00,54.1,32.1,30.11,North,356,2.0,3.0,43,0.00,,,0.00,Wunderground v.1.15,2013-10-07 00:31:00,
2013-10-06 18:32:00,54.0,32.0,30.11,WNW,300,2.0,3.0,43,0.00,,,0.00,Wunderground v.1.15,2013-10-07 00:32:00,
2013-10-06 18:35:00,53.7,32.3,30.11,NW,304,2.0,3.0,44,0.00,,,0.00,Wunderground v.1.15,2013-10-07 00:35:00,
2013-10-06 18:36:00,53.6,32.2,30.11,NW,304,1.0,3.0,44,0.00,,,0.00,Wunderground v.1.15,2013-10-07 00:36:00,
2013-10-06 18:37:00,53.5,32.1,30.11,NW,305,1.0,3.0,44,0.00,,,0.00,Wunderground v.1.15,2013-10-07 00:37:00,
2013-10-06 18:39:00,53.3,31.9,30.11,NW,304,1.0,3.0,44,0.00,,,0.00,Wunderground v.1.15,2013-10-07 00:39:00,
2013-10-06 18:41:00,53.2,31.8,30.11,WNW,294,1.0,1.0,44,0.00,,,0.00,Wunderground v.1.15,2013-10-07 00:41:00,
2013-10-06 18:42:00,53.2,31.8,30.11,WNW,293,1.0,1.0,44,0.00,,,0.00,Wunderground v.1.15,2013-10-07 00:42:00,
2013-10-06 18:44:00,53.2,31.8,30.11,WSW,257,1.0,1.0,44,0.00,,,0.00,Wunderground v.1.15,2013-10-07 00:44:00,
2013-10-06 18:46:00,53.2,32.4,30.11,WSW,257,1.0,1.0,45,0.00,,,0.00,Wunderground v.1.15,2013-10-07 00:46:00,
2013-10-06 18:47:00,53.2,32.9,30.11,WSW,257,1.0,1.0,46,0.00,,,0.00,Wunderground v.1.15,2013-10-07 00:47:00,
2013-10-06 18:52:00,52.1,32.5,30.11,NW,308,1.0,3.0,47,0.00,,,0.00,Wunderground v.1.15,2013-10-07 00:52:00,
2013-10-06 18:53:00,51.9,31.7,30.11,North,351,1.0,3.0,46,0.00,,,0.00,Wunderground v.1.15,2013-10-07 00:53:00,
2013-10-06 18:54:00,51.7,31.6,30.11,NW,314,1.0,3.0,46,0.00,,,0.00,Wunderground v.1.15,2013-10-07 00:54:00,
2013-10-06 18:55:00,51.5,30.8,30.11,NW,325,1.0,3.0,45,0.00,,,0.00,Wunderground v.1.15,2013-10-07 00:55:00,
2013-10-06 18:56:00,51.4,30.7,30.11,NE,41,1.0,3.0,45,0.00,,,0.00,Wunderground v.1.15,2013-10-07 00:56:00,
2013-10-06 18:58:00,51.4,31.8,30.11,WNW,302,1.0,3.0,47,0.00,,,0.00,Wunderground v.1.15,2013-10-07 00:58:00,
2013-10-06 19:00:00,51.0,32.0,30.11,NW,311,1.0,1.0,48,0.00,,,0.00,Wunderground v.1.15,2013-10-07 01:00:00,
2013-10-06 19:01:00,50.8,31.3,30.11,NW,310,1.0,1.0,47,0.00,,,0.00,Wunderground v.1.15,2013-10-07 01:01:00,
2013-10-06 19:02:00,50.7,31.7,30.11,NW,310,1.0,1.0,48,0.00,,,0.00,Wunderground v.1.15,2013-10-07 01:02:00,
2013-10-06 19:06:00,50.1,30.6,30.11,NW,319,1.0,2.0,47,0.00,,,0.00,Wunderground v.1.15,2013-10-07 01:06:00,
2013-10-06 19:07:00,50.2,29.7,30.11,NW,316,1.0,2.0,45,0.00,,,0.00,Wunderground v.1.15,2013-10-07 01:07:00,
2013-10-06 19:08:00,50.4,29.8,30.11,West,269,1.0,2.0,45,0.00,,,0.00,Wunderground v.1.15,2013-10-07 01:08:00,
2013-10-06 19:11:00,50.8,30.2,30.11,NNE,26,1.0,3.0,45,0.00,,,0.00,Wunderground v.1.15,2013-10-07 01:11:00,
2013-10-06 19:12:00,50.9,29.2,30.11,ENE,67,1.0,3.0,43,0.00,,,0.00,Wunderground v.1.15,2013-10-07 01:12:00,
2013-10-06 19:13:00,51.0,29.8,30.11,ENE,65,1.0,3.0,44,0.00,,,0.00,Wunderground v.1.15,2013-10-07 01:13:00,
2013-10-06 19:17:00,50.5,30.5,30.11,WNW,300,1.0,3.0,46,0.00,,,0.00,Wunderground v.1.15,2013-10-07 01:17:00,
2013-10-06 19:18:00,50.3,30.3,30.11,WNW,301,1.0,3.0,46,0.00,,,0.00,Wunderground v.1.15,2013-10-07 01:18:00,
2013-10-06 19:20:00,50.0,30.0,30.11,SW,225,1.0,1.0,46,0.00,,,0.00,Wunderground v.1.15,2013-10-07 01:20:00,
2013-10-06 19:21:00,49.9,29.9,30.11,ESE,121,1.0,1.0,46,0.00,,,0.00,Wunderground v.1.15,2013-10-07 01:21:00,
2013-10-06 19:22:00,49.8,29.3,30.11,ENE,78,1.0,3.0,45,0.00,,,0.00,Wunderground v.1.15,2013-10-07 01:22:00,
2013-10-06 19:24:00,49.8,30.9,30.11,ENE,68,1.0,3.0,48,0.00,,,0.00,Wunderground v.1.15,2013-10-07 01:24:00,
2013-10-06 19:26:00,49.5,29.6,30.12,East,82,1.0,3.0,46,0.00,,,0.00,Wunderground v.1.15,2013-10-07 01:26:00,
2013-10-06 19:30:00,49.6,30.7,30.11,ESE,121,1.0,1.0,48,0.00,,,0.00,Wunderground v.1.15,2013-10-07 01:30:00,
2013-10-06 19:32:00,49.8,30.9,30.11,East,79,1.0,2.0,48,0.00,,,0.00,Wunderground v.1.15,2013-10-07 01:32:00,
2013-10-06 19:33:00,49.9,31.0,30.11,ENE,78,1.0,2.0,48,0.00,,,0.00,Wunderground v.1.15,2013-10-07 01:33:00,
2013-10-06 19:36:00,49.8,30.9,30.11,NW,314,1.0,2.0,48,0.00,,,0.00,Wunderground v.1.15,2013-10-07 01:36:00,
2013-10-06 19:37:00,49.7,30.8,30.11,WNW,297,1.0,2.0,48,0.00,,,0.00,Wunderground v.1.15,2013-10-07 01:37:00,
2013-10-06 19:39:00,49.7,30.3,30.11,ENE,63,1.0,3.0,47,0.00,,,0.00,Wunderground v.1.15,2013-10-07 01:39:00,
2013-10-06 19:40:00,49.7,29.7,30.11,SE,128,1.0,1.0,46,0.00,,,0.00,Wunderground v.1.15,2013-10-07 01:40:00,
2013-10-06 19:41:00,49.7,29.7,30.11,SE,128,1.0,1.0,46,0.00,,,0.00,Wunderground v.1.15,2013-10-07 01:41:00,
2013-10-06 19:43:00,49.8,28.7,30.11,WNW,284,1.0,2.0,44,0.00,,,0.00,Wunderground v.1.15,2013-10-07 01:43:00,
2013-10-06 19:47:00,50.2,29.1,30.11,West,274,1.0,2.0,44,0.00,,,0.00,Wunderground v.1.15,2013-10-07 01:47:00,
2013-10-06 19:48:00,50.3,29.2,30.11,WSW,255,1.0,2.0,44,0.00,,,0.00,Wunderground v.1.15,2013-10-07 01:48:00,
2013-10-06 19:51:00,50.4,28.7,30.11,West,274,1.0,2.0,43,0.00,,,0.00,Wunderground v.1.15,2013-10-07 01:51:00,
2013-10-06 19:53:00,50.4,29.3,30.11,West,267,1.0,2.0,44,0.00,,,0.00,Wunderground v.1.15,2013-10-07 01:53:00,
2013-10-06 19:54:00,50.3,28.6,30.11,SSW,208,1.0,3.0,43,0.00,,,0.00,Wunderground v.1.15,2013-10-07 01:54:00,
2013-10-06 19:57:00,50.1,29.0,30.11,South,174,1.0,3.0,44,0.00,,,0.00,Wunderground v.1.15,2013-10-07 01:57:00,
2013-10-06 19:58:00,50.1,28.4,30.11,SSW,207,2.0,4.0,43,0.00,,,0.00,Wunderground v.1.15,2013-10-07 01:58:00,
2013-10-06 19:59:00,50.1,28.4,30.11,WSW,252,2.0,4.0,43,0.00,,,0.00,Wunderground v.1.15,2013-10-07 01:59:00,
2013-10-06 20:01:00,50.1,29.0,30.11,WNW,294,2.0,3.0,44,0.00,,,0.00,Wunderground v.1.15,2013-10-07 02:01:00,
2013-10-06 20:04:00,49.9,28.8,30.11,WNW,285,2.0,3.0,44,0.00,,,0.00,Wunderground v.1.15,2013-10-07 02:04:00,
2013-10-06 20:06:00,49.9,28.3,30.11,West,270,2.0,3.0,43,0.00,,,0.00,Wunderground v.1.15,2013-10-07 02:06:00,
2013-10-06 20:07:00,49.9,28.3,30.11,WSW,249,2.0,3.0,43,0.00,,,0.00,Wunderground v.1.15,2013-10-07 02:07:00,
2013-10-06 20:11:00,49.9,28.8,30.11,SSW,198,1.0,1.0,44,0.00,,,0.00,Wunderground v.1.15,2013-10-07 02:11:00,
2013-10-06 20:12:00,49.8,28.7,30.11,SSE,156,1.0,1.0,44,0.00,,,0.00,Wunderground v.1.15,2013-10-07 02:12:00,
2013-10-06 20:16:00,49.3,28.8,30.11,SW,214,1.0,2.0,45,0.00,,,0.00,Wunderground v.1.15,2013-10-07 02:16:00,
2013-10-06 20:17:00,49.3,28.3,30.11,SSE,165,1.0,2.0,44,0.00,,,0.00,Wunderground v.1.15,2013-10-07 02:17:00,
2013-10-06 20:19:00,49.2,28.7,30.11,SSE,165,1.0,2.0,45,0.00,,,0.00,Wunderground v.1.15,2013-10-07 02:19:00,
2013-10-06 20:20:00,49.1,29.2,30.11,SW,224,1.0,1.0,46,0.00,,,0.00,Wunderground v.1.15,2013-10-07 02:20:00,
2013-10-06 20:22:00,48.9,30.1,30.11,WSW,238,1.0,1.0,48,0.00,,,0.00,Wunderground v.1.15,2013-10-07 02:22:00,
2013-10-06 20:24:00,48.8,28.4,30.11,SW,233,0.0,3.0,45,0.00,,,0.00,Wunderground v.1.15,2013-10-07 02:24:00,
2013-10-06 20:26:00,48.8,28.4,30.11,WSW,239,1.0,3.0,45,0.00,,,0.00,Wunderground v.1.15,2013-10-07 02:26:00,
2013-10-06 20:30:00,48.2,28.9,30.11,NNW,335,0.0,1.0,47,0.00,,,0.00,Wunderground v.1.15,2013-10-07 02:30:00,
2013-10-06 20:32:00,48.1,28.3,30.11,WNW,298,1.0,6.0,46,0.00,,,0.00,Wunderground v.1.15,2013-10-07 02:32:00,
2013-10-06 20:34:00,48.2,27.8,30.11,SW,229,1.0,6.0,45,0.00,,,0.00,Wunderground v.1.15,2013-10-07 02:34:00,
2013-10-06 20:36:00,48.2,28.4,30.11,SW,229,1.0,6.0,46,0.00,,,0.00,Wunderground v.1.15,2013-10-07 02:36:00,
2013-10-06 20:38:00,47.9,28.1,30.11,SW,229,1.0,6.0,46,0.00,,,0.00,Wunderground v.1.15,2013-10-07 02:38:00,
2013-10-06 20:39:00,47.7,28.4,30.11,SW,229,1.0,6.0,47,0.00,,,0.00,Wunderground v.1.15,2013-10-07 02:39:00,
2013-10-06 20:43:00,47.3,28.1,30.11,NNE,12,1.0,2.0,47,0.00,,,0.00,Wunderground v.1.15,2013-10-07 02:43:00,
2013-10-06 20:44:00,47.2,28.5,30.11,North,11,1.0,2.0,48,0.00,,,0.00,Wunderground v.1.15,2013-10-07 02:44:00,
2013-10-06 20:45:00,47.2,28.5,30.11,ENE,64,1.0,2.0,48,0.00,,,0.00,Wunderground v.1.15,2013-10-07 02:45:00,
2013-10-06 20:49:00,47.5,27.7,30.11,NNE,25,1.0,2.0,46,0.00,,,0.00,Wunderground v.1.15,2013-10-07 02:49:00,
2013-10-06 20:50:00,47.5,28.3,30.11,North,4,1.0,3.0,47,0.00,,,0.00,Wunderground v.1.15,2013-10-07 02:50:00,
2013-10-06 20:52:00,47.6,27.8,30.11,NNE,30,2.0,3.0,46,0.00,,,0.00,Wunderground v.1.15,2013-10-07 02:52:00,
2013-10-06 20:53:00,47.6,28.3,30.11,North,356,2.0,3.0,47,0.00,,,0.00,Wunderground v.1.15,2013-10-07 02:53:00,
2013-10-06 20:55:00,47.5,27.7,30.11,West,264,1.0,3.0,46,0.00,,,0.00,Wunderground v.1.15,2013-10-07 02:55:00,
2013-10-06 20:58:00,47.1,27.9,30.11,WNW,293,1.0,3.0,47,0.00,,,0.00,Wunderground v.1.15,2013-10-07 02:58:00,
2013-10-06 20:59:00,47.0,27.8,30.11,North,6,1.0,3.0,47,0.00,,,0.00,Wunderground v.1.15,2013-10-07 02:59:00,
2013-10-06 21:00:00,46.8,27.6,30.11,NNW,343,1.0,1.0,47,0.00,,,0.00,Wunderground v.1.15,2013-10-07 03:00:00,
2013-10-06 21:01:00,46.7,27.5,30.11,NNW,345,1.0,1.0,47,0.00,,,0.00,Wunderground v.1.15,2013-10-07 03:01:00,
2013-10-06 21:04:00,46.5,27.3,30.11,NNW,345,1.0,1.0,47,0.00,,,0.00,Wunderground v.1.15,2013-10-07 03:04:00,
2013-10-06 21:05:00,46.5,27.3,30.11,NNW,343,1.0,1.0,47,0.00,,,0.00,Wunderground v.1.15,2013-10-07 03:05:00,
2013-10-06 21:07:00,46.5,27.3,30.11,NNW,345,1.0,1.0,47,0.00,,,0.00,Wunderground v.1.15,2013-10-07 03:07:00,
2013-10-06 21:10:00,46.4,27.2,30.11,NNW,345,0.0,0.0,47,0.00,,,0.00,Wunderground v.1.15,2013-10-07 03:10:00,
2013-10-06 21:11:00,46.4,27.8,30.11,NNW,345,0.0,0.0,48,0.00,,,0.00,Wunderground v.1.15,2013-10-07 03:11:00,
2013-10-06 21:13:00,46.1,27.5,30.11,NNW,345,0.0,1.0,48,0.00,,,0.00,Wunderground v.1.15,2013-10-07 03:13:00,
2013-10-06 21:17:00,45.3,27.2,30.11,NNW,345,0.0,1.0,49,0.00,,,0.00,Wunderground v.1.15,2013-10-07 03:17:00,
2013-10-06 21:19:00,44.9,26.9,30.11,NNW,345,0.0,1.0,49,0.00,,,0.00,Wunderground v.1.15,2013-10-07 03:19:00,
2013-10-06 21:21:00,44.7,27.2,30.11,NNW,345,0.0,0.0,50,0.00,,,0.00,Wunderground v.1.15,2013-10-07 03:21:00,
2013-10-06 21:23:00,44.5,27.5,30.11,NW,316,0.0,2.0,51,0.00,,,0.00,Wunderground v.1.15,2013-10-07 03:23:00,
2013-10-06 21:24:00,44.4,27.4,30.12,NW,314,0.0,2.0,51,0.00,,,0.00,Wunderground v.1.15,2013-10-07 03:24:00,
2013-10-06 21:27:00,44.3,27.3,30.12,NNW,347,1.0,2.0,51,0.00,,,0.00,Wunderground v.1.15,2013-10-07 03:27:00,
2013-10-06 21:30:00,44.3,27.8,30.11,NNW,347,1.0,1.0,52,0.00,,,0.00,Wunderground v.1.15,2013-10-07 03:30:00,
2013-10-06 21:31:00,44.3,27.8,30.11,NNW,347,1.0,1.0,52,0.00,,,0.00,Wunderground v.1.15,2013-10-07 03:31:00,
2013-10-06 21:32:00,44.2,27.7,30.11,NNW,347,1.0,1.0,52,0.00,,,0.00,Wunderground v.1.15,2013-10-07 03:32:00,
2013-10-06 21:33:00,44.1,27.6,30.11,NNW,345,1.0,1.0,52,0.00,,,0.00,Wunderground v.1.15,2013-10-07 03:33:00,
2013-10-06 21:36:00,43.7,28.1,30.11,NNW,329,0.0,1.0,54,0.00,,,0.00,Wunderground v.1.15,2013-10-07 03:36:00,
2013-10-06 21:38:00,43.7,28.1,30.11,NNW,328,0.0,1.0,54,0.00,,,0.00,Wunderground v.1.15,2013-10-07 03:38:00,
2013-10-06 21:39:00,43.7,28.1,30.11,NNW,328,0.0,1.0,54,0.00,,,0.00,Wunderground v.1.15,2013-10-07 03:39:00,
2013-10-06 21:40:00,43.7,28.6,30.11,NNW,328,0.0,0.0,55,0.00,,,0.00,Wunderground v.1.15,2013-10-07 03:40:00,
2013-10-06 21:42:00,43.6,28.5,30.11,NNW,329,0.0,0.0,55,0.00,,,0.00,Wunderground v.1.15,2013-10-07 03:42:00,
2013-10-06 21:43:00,43.5,27.9,30.11,NNW,329,0.0,0.0,54,0.00,,,0.00,Wunderground v.1.15,2013-10-07 03:43:00,
2013-10-06 21:44:00,43.5,27.9,30.11,NNW,329,0.0,0.0,54,0.00,,,0.00,Wunderground v.1.15,2013-10-07 03:44:00,
2013-10-06 21:48:00,43.1,28.0,30.11,NNW,328,0.0,2.0,55,0.00,,,0.00,Wunderground v.1.15,2013-10-07 03:48:00,
2013-10-06 21:49:00,43.1,28.0,30.11,NNW,329,0.0,2.0,55,0.00,,,0.00,Wunderground v.1.15,2013-10-07 03:49:00,
2013-10-06 21:50:00,43.1,28.5,30.11,NW,322,1.0,1.0,56,0.00,,,0.00,Wunderground v.1.15,2013-10-07 03:50:00,
2013-10-06 21:52:00,43.1,28.9,30.11,WNW,290,1.0,1.0,57,0.00,,,0.00,Wunderground v.1.15,2013-10-07 03:52:00,
2013-10-06 21:54:00,43.0,29.2,30.11,NW,307,1.0,3.0,58,0.00,,,0.00,Wunderground v.1.15,2013-10-07 03:54:00,
2013-10-06 21:56:00,42.8,28.6,30.11,NW,308,1.0,3.0,57,0.00,,,0.00,Wunderground v.1.15,2013-10-07 03:56:00,
2013-10-06 21:58:00,42.9,28.3,30.11,NW,304,1.0,4.0,56,0.00,,,0.00,Wunderground v.1.15,2013-10-07 03:58:00,
2013-10-06 21:59:00,43.2,28.1,30.11,NW,307,1.0,4.0,55,0.00,,,0.00,Wunderground v.1.15,2013-10-07 03:59:00,
2013-10-06 22:00:00,43.7,28.1,30.11,West,274,1.0,2.0,54,0.00,,,0.00,Wunderground v.1.15,2013-10-07 04:00:00,
2013-10-06 22:01:00,44.0,28.0,30.11,SW,221,1.0,2.0,53,0.00,,,0.00,Wunderground v.1.15,2013-10-07 04:01:00,
2013-10-06 22:02:00,44.4,27.9,30.11,SW,226,1.0,3.0,52,0.00,,,0.00,Wunderground v.1.15,2013-10-07 04:02:00,
2013-10-06 22:03:00,44.8,28.2,30.11,West,269,1.0,3.0,52,0.00,,,0.00,Wunderground v.1.15,2013-10-07 04:03:00,
2013-10-06 22:04:00,45.0,27.5,30.11,West,263,2.0,7.0,50,0.00,,,0.00,Wunderground v.1.15,2013-10-07 04:04:00,
2013-10-06 22:07:00,47.1,27.4,30.10,SW,226,3.0,8.0,46,0.00,,,0.00,Wunderground v.1.15,2013-10-07 04:07:00,
2013-10-06 22:08:00,47.9,27.0,30.10,WSW,243,3.0,8.0,44,0.00,,,0.00,Wunderground v.1.15,2013-10-07 04:08:00,
2013-10-06 22:10:00,49.3,26.0,30.10,WNW,288,4.0,11.0,40,0.00,,,0.00,Wunderground v.1.15,2013-10-07 04:10:00,
2013-10-06 22:12:00,50.6,26.5,30.10,WNW,288,6.0,11.0,39,0.00,,,0.00,Wunderground v.1.15,2013-10-07 04:12:00,
2013-10-06 22:14:00,51.6,26.1,30.10,SW,236,8.0,13.0,37,0.00,,,0.00,Wunderground v.1.15,2013-10-07 04:14:00,
2013-10-06 22:15:00,52.0,25.8,30.10,NW,308,8.0,13.0,36,0.00,,,0.00,Wunderground v.1.15,2013-10-07 04:15:00,
2013-10-06 22:16:00,52.3,26.1,30.10,WSW,255,9.0,13.0,36,0.00,,,0.00,Wunderground v.1.15,2013-10-07 04:16:00,
2013-10-06 22:18:00,52.7,25.8,30.10,SW,236,9.0,13.0,35,0.00,,,0.00,Wunderground v.1.15,2013-10-07 04:18:00,
2013-10-06 22:19:00,52.8,25.9,30.10,WNW,283,9.0,13.0,35,0.00,,,0.00,Wunderground v.1.15,2013-10-07 04:19:00,
2013-10-06 22:20:00,53.0,25.3,30.10,West,273,10.0,10.0,34,0.00,,,0.00,Wunderground v.1.15,2013-10-07 04:20:00,
2013-10-06 22:22:00,53.2,25.5,30.10,WSW,252,9.0,10.0,34,0.00,,,0.00,Wunderground v.1.15,2013-10-07 04:22:00,
2013-10-06 22:26:00,53.2,25.5,30.10,West,273,7.0,10.0,34,0.00,,,0.00,Wunderground v.1.15,2013-10-07 04:26:00,
2013-10-06 22:27:00,53.2,25.5,30.10,West,276,7.0,10.0,34,0.00,,,0.00,Wunderground v.1.15,2013-10-07 04:27:00,
2013-10-06 22:28:00,53.3,25.6,30.10,West,274,7.0,10.0,34,0.00,,,0.00,Wunderground v.1.15,2013-10-07 04:28:00,
2013-10-06 22:29:00,53.3,25.6,30.10,WSW,249,7.0,10.0,34,0.00,,,0.00,Wunderground v.1.15,2013-10-07 04:29:00,
2013-10-06 22:32:00,53.2,25.5,30.10,West,259,6.0,8.0,34,0.00,,,0.00,Wunderground v.1.15,2013-10-07 04:32:00,
2013-10-06 22:35:00,53.3,25.6,30.10,West,274,7.0,10.0,34,0.00,,,0.00,Wunderground v.1.15,2013-10-07 04:35:00,
2013-10-06 22:36:00,53.3,25.6,30.10,WNW,284,7.0,10.0,34,0.00,,,0.00,Wunderground v.1.15,2013-10-07 04:36:00,
2013-10-06 22:39:00,53.3,25.6,30.10,West,267,8.0,11.0,34,0.00,,,0.00,Wunderground v.1.15,2013-10-07 04:39:00,
2013-10-06 22:40:00,53.4,25.7,30.10,WNW,283,8.0,8.0,34,0.00,,,0.00,Wunderground v.1.15,2013-10-07 04:40:00,
2013-10-06 22:41:00,53.4,25.0,30.10,West,278,8.0,8.0,33,0.00,,,0.00,Wunderground v.1.15,2013-10-07 04:41:00,
2013-10-06 22:42:00,53.4,25.0,30.10,West,280,8.0,8.0,33,0.00,,,0.00,Wunderground v.1.15,2013-10-07 04:42:00,
2013-10-06 22:46:00,53.4,25.7,30.10,West,278,8.0,8.0,34,0.00,,,0.00,Wunderground v.1.15,2013-10-07 04:46:00,
2013-10-06 22:47:00,53.3,25.6,30.10,West,271,7.0,8.0,34,0.00,,,0.00,Wunderground v.1.15,2013-10-07 04:47:00,
2013-10-06 22:48:00,53.3,25.6,30.10,WSW,250,7.0,8.0,34,0.00,,,0.00,Wunderground v.1.15,2013-10-07 04:48:00,
2013-10-06 22:50:00,53.2,24.8,30.10,WSW,250,6.0,6.0,33,0.00,,,0.00,Wunderground v.1.15,2013-10-07 04:50:00,
2013-10-06 22:53:00,53.2,24.8,30.10,WSW,250,6.0,7.0,33,0.00,,,0.00,Wunderground v.1.15,2013-10-07 04:53:00,
2013-10-06 22:55:00,53.2,24.8,30.10,West,276,5.0,7.0,33,0.00,,,0.00,Wunderground v.1.15,2013-10-07 04:55:00,
2013-10-06 22:56:00,53.1,24.7,30.10,West,266,5.0,7.0,33,0.00,,,0.00,Wunderground v.1.15,2013-10-07 04:56:00,
2013-10-06 22:57:00,53.1,24.7,30.10,West,281,5.0,7.0,33,0.00,,,0.00,Wunderground v.1.15,2013-10-07 04:57:00,
2013-10-06 23:00:00,53.2,25.5,30.10,West,277,6.0,8.0,34,0.00,,,0.00,Wunderground v.1.15,2013-10-07 05:00:00,
2013-10-06 23:02:00,53.1,25.4,30.09,West,266,6.0,9.0,34,0.00,,,0.00,Wunderground v.1.15,2013-10-07 05:02:00,
2013-10-06 23:03:00,53.1,25.4,30.09,WSW,246,6.0,9.0,34,0.00,,,0.00,Wunderground v.1.15,2013-10-07 05:03:00,
2013-10-06 23:07:00,53.1,25.4,30.09,West,280,7.0,9.0,34,0.00,,,0.00,Wunderground v.1.15,2013-10-07 05:07:00,
2013-10-06 23:09:00,53.0,24.6,30.09,West,267,7.0,9.0,33,0.00,,,0.00,Wunderground v.1.15,2013-10-07 05:09:00,
2013-10-06 23:10:00,53.0,24.6,30.09,West,281,6.0,9.0,33,0.00,,,0.00,Wunderground v.1.15,2013-10-07 05:10:00,
2013-10-06 23:12:00,53.0,24.6,30.09,WNW,284,6.0,9.0,33,0.00,,,0.00,Wunderground v.1.15,2013-10-07 05:12:00,
2013-10-06 23:14:00,53.1,24.7,30.09,West,277,6.0,9.0,33,0.00,,,0.00,Wunderground v.1.15,2013-10-07 05:14:00,
2013-10-06 23:18:00,53.4,25.0,30.09,WNW,290,8.0,13.0,33,0.00,,,0.00,Wunderground v.1.15,2013-10-07 05:18:00,
2013-10-06 23:19:00,53.5,25.1,30.08,WSW,242,8.0,13.0,33,0.00,,,0.00,Wunderground v.1.15,2013-10-07 05:19:00,
2013-10-06 23:21:00,53.6,24.4,30.09,WNW,298,9.0,9.0,32,0.00,,,0.00,Wunderground v.1.15,2013-10-07 05:21:00,
2013-10-06 23:24:00,53.5,25.1,30.08,SW,236,9.0,9.0,33,0.00,,,0.00,Wunderground v.1.15,2013-10-07 05:24:00,
2013-10-06 23:27:00,53.4,25.0,30.08,WSW,245,9.0,11.0,33,0.00,,,0.00,Wunderground v.1.15,2013-10-07 05:27:00,
2013-10-06 23:29:00,53.4,25.0,30.08,West,272,8.0,11.0,33,0.00,,,0.00,Wunderground v.1.15,2013-10-07 05:29:00,
2013-10-06 23:30:00,53.3,24.9,30.08,West,267,8.0,8.0,33,0.00,,,0.00,Wunderground v.1.15,2013-10-07 05:30:00,
2013-10-06 23:31:00,53.3,24.9,30.08,SW,236,8.0,8.0,33,0.00,,,0.00,Wunderground v.1.15,2013-10-07 05:31:00,
2013-10-06 23:36:00,53.2,24.8,30.08,WSW,256,8.0,9.0,33,0.00,,,0.00,Wunderground v.1.15,2013-10-07 05:36:00,
2013-10-06 23:37:00,53.2,24.8,30.08,WSW,242,7.0,12.0,33,0.00,,,0.00,Wunderground v.1.15,2013-10-07 05:37:00,
2013-10-06 23:42:00,53.1,24.7,30.07,WSW,256,7.0,12.0,33,0.00,,,0.00,Wunderground v.1.15,2013-10-07 05:42:00,
2013-10-06 23:44:00,53.0,24.6,30.07,West,276,8.0,12.0,33,0.00,,,0.00,Wunderground v.1.15,2013-10-07 05:44:00,
2013-10-06 23:45:00,53.0,24.6,30.07,West,277,8.0,12.0,33,0.00,,,0.00,Wunderground v.1.15,2013-10-07 05:45:00,
2013-10-06 23:48:00,53.0,24.6,30.07,WNW,288,8.0,12.0,33,0.00,,,0.00,Wunderground v.1.15,2013-10-07 05:48:00,
2013-10-06 23:50:00,53.0,23.9,30.07,West,281,8.0,10.0,32,0.00,,,0.00,Wunderground v.1.15,2013-10-07 05:50:00,
2013-10-06 23:51:00,53.0,23.9,30.07,West,259,9.0,10.0,32,0.00,,,0.00,Wunderground v.1.15,2013-10-07 05:51:00,
2013-10-06 23:53:00,53.0,23.9,30.07,West,276,8.0,10.0,32,0.00,,,0.00,Wunderground v.1.15,2013-10-07 05:53:00,
2013-10-06 23:55:00,53.1,23.2,30.07,WSW,257,8.0,10.0,31,0.00,,,0.00,Wunderground v.1.15,2013-10-07 05:55:00,
2013-10-06 23:57:00,53.1,23.2,30.07,West,259,8.0,10.0,31,0.00,,,0.00,Wunderground v.1.15,2013-10-07 05:57:00,
2013-10-06 23:58:00,53.2,23.3,30.06,WNW,287,8.0,10.0,31,0.00,,,0.00,Wunderground v.1.15,2013-10-07 05:58:00,
2013-10-06 23:59:00,53.1,23.2,30.06,WSW,255,8.0,11.0,31,0.00,,,0.00,Wunderground v.1.15,2013-10-07 05:59:00,